EW4266 Weather Reports


Display with metric or nautical units.
time (UTC)temp
F
wind
direction
speed
MPH
gust
MPH
rain 1hr
in
rain 24hr
in
rain mn
in
humidity
%
barometer
mb
20260902232742 69 154 3.0 8.0 0.00 0.00 0.00 78 1015.3
20260902232534 69 148 2.0 8.0 0.00 0.00 0.00 77 1015.3
20260902232448 69 146 2.0 8.0 0.00 0.00 0.00 78 1015.3
20260902232318 69 143 3.0 8.0 0.00 0.00 0.00 77 1015.4
20260902232219 69 145 4.0 8.0 0.00 0.00 0.00 77 1015.4
20260902232041 70 139 3.0 8.0 0.00 0.00 0.00 77 1015.5
20260902231943 70 119 1.0 7.0 0.00 0.00 0.00 77 1015.6
20260902231828 70 146 3.0 7.0 0.00 0.00 0.00 77 1015.7
20260902231749 70 151 4.0 7.0 0.00 0.00 0.00 76 1015.8
20260902231617 70 145 3.0 9.0 0.00 0.00 0.00 76 1015.9
20260902231538 70 163 3.0 9.0 0.00 0.00 0.00 76 1015.9
20260902231419 70 236 3.0 9.0 0.00 0.00 0.00 76 1015.9
20260902231335 70 154 3.0 9.0 0.00 0.00 0.00 76 1015.9
20260902231205 70 223 3.0 9.0 0.00 0.00 0.00 76 1015.9
20260902231126 70 156 4.0 9.0 0.00 0.00 0.00 76 1015.9
20260902230958 70 184 4.0 9.0 0.00 0.00 0.00 76 1015.8
20260902230832 70 153 5.0 9.0 0.00 0.00 0.00 76 1015.9
20260902230755 70 163 5.0 10.0 0.00 0.00 0.00 76 1015.9
20260902230700 70 192 4.0 9.0 0.00 0.00 0.00 76 1015.9
20260902230622 70 182 4.0 9.0 0.00 0.00 0.00 76 1015.9
20260902230430 70 183 2.0 15.0 0.00 0.00 0.00 76 1015.9
20260902230332 70 144 3.0 15.0 0.00 0.00 0.00 76 1015.9
20260902230237 70 173 3.0 15.0 0.00 0.00 0.00 76 1015.9
20260902230140 70 171 3.0 15.0 0.00 0.00 0.00 76 1015.9
20260902230056 70 167 4.0 15.0 0.00 0.00 0.00 76 1015.9
20260902230018 70 173 4.0 15.0 0.00 0.00 0.00 76 1015.9
20260902225940 70 133 5.0 15.0 0.00 0.00 0.00 76 1015.9
20260902225723 70 180 7.0 15.0 0.00 0.00 0.00 75 1016.0
20260902225646 70 165 5.0 16.0 0.00 0.00 0.00 76 1016.0
20260902225535 70 169 3.0 9.0 0.00 0.00 0.00 76 1015.9
20260902225458 70 159 3.0 9.0 0.00 0.00 0.00 76 1016.0
20260902225341 70 157 2.0 9.0 0.00 0.00 0.00 76 1016.0
20260902225306 70 188 4.0 9.0 0.00 0.00 0.00 75 1016.0
20260902225134 70 179 4.0 9.0 0.00 0.00 0.00 76 1016.1
20260902225028 70 114 3.0 9.0 0.00 0.00 0.00 76 1016.1
20260902224858 70 173 6.0 9.0 0.00 0.00 0.00 75 1016.2
20260902224820 70 190 6.0 9.0 0.00 0.00 0.00 75 1016.2
20260902224642 70 151 5.0 10.0 0.00 0.00 0.00 75 1016.2
20260902224545 70 213 6.0 9.0 0.00 0.00 0.00 75 1016.2
20260902224435 70 171 5.0 9.0 0.00 0.00 0.00 75 1016.3
20260902224357 70 93 3.0 9.0 0.00 0.00 0.00 75 1016.2
20260902224320 70 137 4.0 9.0 0.00 0.00 0.00 75 1016.3
20260902224225 71 175 5.0 9.0 0.00 0.00 0.00 75 1016.4
20260902224125 71 175 4.0 9.0 0.00 0.00 0.00 75 1016.4
20260902223929 71 136 2.0 9.0 0.00 0.00 0.00 75 1016.6
20260902223832 71 200 3.0 9.0 0.00 0.00 0.00 75 1016.6
20260902223737 71 235 3.0 9.0 0.00 0.00 0.00 75 1016.6
20260902223658 71 237 3.0 10.0 0.00 0.00 0.00 75 1016.6
20260902223622 71 248 2.0 10.0 0.00 0.00 0.00 75 1016.6
20260902223527 71 211 2.0 10.0 0.00 0.00 0.00 75 1016.5
20260902223432 71 205 2.0 10.0 0.00 0.00 0.00 75 1016.5
20260902223243 71 128 5.0 10.0 0.00 0.00 0.00 75 1016.4
20260902223156 71 161 4.0 10.0 0.00 0.00 0.00 75 1016.4
20260902223006 71 157 5.0 14.0 0.00 0.00 0.00 75 1016.2
20260902222929 71 194 5.0 14.0 0.00 0.00 0.00 75 1016.2
20260902222752 71 173 3.0 14.0 0.00 0.00 0.00 75 1016.1
20260902222724 71 142 3.0 14.0 0.00 0.00 0.00 75 1016.1
20260902222556 71 118 4.0 14.0 0.00 0.00 0.00 75 1016.1
20260902222511 71 156 5.0 14.0 0.00 0.00 0.00 75 1016.1
20260902222250 71 165 6.0 15.0 0.00 0.00 0.00 75 1016.3
20260902222152 71 223 5.0 15.0 0.00 0.00 0.00 75 1016.4
20260902222042 71 184 7.0 15.0 0.00 0.00 0.00 75 1016.4
20260902222002 71 125 6.0 15.0 0.00 0.00 0.00 75 1016.4
20260902221834 71 166 5.0 15.0 0.00 0.00 0.00 75 1016.5
20260902221728 71 109 8.0 15.0 0.00 0.00 0.00 75 1016.5
20260902221559 71 164 6.0 15.0 0.00 0.00 0.00 75 1016.5
20260902221521 71 179 6.0 12.0 0.00 0.00 0.00 75 1016.5
20260902221332 71 140 6.0 14.0 0.00 0.00 0.00 75 1016.6
20260902221253 71 156 5.0 14.0 0.00 0.00 0.00 76 1016.6
20260902221123 71 163 4.0 14.0 0.00 0.00 0.00 75 1016.6
20260902221017 71 159 4.0 14.0 0.00 0.00 0.00 76 1016.6
20260902220828 71 171 5.0 14.0 0.00 0.00 0.00 76 1016.7
20260902220742 71 180 5.0 14.0 0.00 0.00 0.00 76 1016.7
20260902220617 71 171 6.0 14.0 0.00 0.00 0.00 75 1016.7
20260902220540 71 148 6.0 14.0 0.00 0.00 0.00 76 1016.7
20260902220410 71 146 5.0 10.0 0.00 0.00 0.00 76 1016.8
20260902220325 71 170 5.0 10.0 0.00 0.00 0.00 76 1016.8
20260902220155 71 154 6.0 10.0 0.00 0.00 0.00 75 1017.0
20260902220118 71 134 6.0 10.0 0.00 0.00 0.00 76 1017.0
20260902220002 71 173 6.0 10.0 0.00 0.00 0.00 75 1017.2
20260902215923 71 144 6.0 10.0 0.00 0.00 0.00 75 1017.2
20260902215754 71 163 5.0 10.0 0.00 0.00 0.00 75 1017.3
20260902215707 71 169 3.0 10.0 0.00 0.00 0.00 75 1017.3
20260902215539 71 188 3.0 10.0 0.00 0.00 0.00 75 1017.3
20260902215440 71 171 4.0 10.0 0.00 0.00 0.00 75 1017.3
20260902215311 71 227 6.0 10.0 0.00 0.00 0.00 75 1017.3
20260902215229 71 146 6.0 12.0 0.00 0.00 0.00 75 1017.3
20260902215101 71 146 3.0 11.0 0.00 0.00 0.00 75 1017.3
20260902215024 71 192 4.0 11.0 0.00 0.00 0.00 75 1017.3
20260902214829 71 185 4.0 11.0 0.00 0.00 0.00 75 1017.4
20260902214751 71 173 5.0 11.0 0.00 0.00 0.00 75 1017.4
20260902214636 71 205 8.0 11.0 0.00 0.00 0.00 74 1017.3
20260902214601 71 169 9.0 11.0 0.00 0.00 0.00 74 1017.3
20260902214521 71 157 8.0 11.0 0.00 0.00 0.00 74 1017.3
20260902214427 72 157 7.0 12.0 0.00 0.00 0.00 74 1017.3
20260902214329 72 197 6.0 9.0 0.00 0.00 0.00 74 1017.3
20260902214138 72 175 5.0 9.0 0.00 0.00 0.00 74 1017.2
20260902214041 72 213 5.0 7.0 0.00 0.00 0.00 74 1017.2
20260902213944 72 160 4.0 7.0 0.00 0.00 0.00 74 1017.2
20260902213837 72 162 4.0 7.0 0.00 0.00 0.00 74 1017.3
20260902213741 72 128 5.0 8.0 0.00 0.00 0.00 74 1017.3
20260902213643 72 186 5.0 8.0 0.00 0.00 0.00 75 1017.3
20260902213607 72 164 5.0 8.0 0.00 0.00 0.00 74 1017.3
20260902213511 72 145 5.0 9.0 0.00 0.00 0.00 75 1017.4
20260902213433 72 167 4.0 8.0 0.00 0.00 0.00 75 1017.4
20260902213305 72 207 4.0 8.0 0.00 0.00 0.00 74 1017.4
20260902213224 72 159 4.0 8.0 0.00 0.00 0.00 74 1017.4
20260902213054 72 159 6.0 8.0 0.00 0.00 0.00 74 1017.5
20260902213016 72 150 5.0 9.0 0.00 0.00 0.00 74 1017.5
20260902212841 72 177 4.0 8.0 0.00 0.00 0.00 74 1017.5
20260902212744 72 175 4.0 8.0 0.00 0.00 0.00 74 1017.5
20260902212628 72 164 4.0 8.0 0.00 0.00 0.00 74 1017.5
20260902212550 72 204 4.0 8.0 0.00 0.00 0.00 74 1017.5
20260902212513 72 190 4.0 9.0 0.00 0.00 0.00 74 1017.6
20260902212418 72 200 5.0 9.0 0.00 0.00 0.00 74 1017.6
20260902212340 72 229 5.0 9.0 0.00 0.00 0.00 73 1017.6
20260902212210 72 202 4.0 9.0 0.00 0.00 0.00 74 1017.6
20260902212130 72 227 4.0 9.0 0.00 0.00 0.00 74 1017.6
20260902212001 72 171 3.0 7.0 0.00 0.00 0.00 74 1017.6
20260902211923 72 171 3.0 7.0 0.00 0.00 0.00 73 1017.6
20260902211724 72 161 4.0 7.0 0.00 0.00 0.00 74 1017.6
20260902211647 72 196 3.0 7.0 0.00 0.00 0.00 73 1017.5
20260902211533 72 187 2.0 7.0 0.00 0.00 0.00 73 1017.6
20260902211455 72 167 3.0 7.0 0.00 0.00 0.00 73 1017.6
20260902211418 72 171 3.0 8.0 0.00 0.00 0.00 73 1017.6
20260902211241 72 140 3.0 8.0 0.00 0.00 0.00 73 1017.6
20260902211201 72 198 2.0 8.0 0.00 0.00 0.00 73 1017.6
20260902211050 72 175 2.0 8.0 0.00 0.00 0.00 73 1017.6
20260902210950 72 196 3.0 8.0 0.00 0.00 0.00 73 1017.5
20260902210800 72 193 4.0 10.0 0.00 0.00 0.00 72 1017.5
20260902210715 72 223 5.0 10.0 0.00 0.00 0.00 72 1017.6
20260902210527 72 156 5.0 10.0 0.00 0.00 0.00 72 1017.6
20260902210440 72 171 5.0 10.0 0.00 0.00 0.00 72 1017.6
20260902210312 72 197 4.0 10.0 0.00 0.00 0.00 72 1017.6
20260902210233 72 244 5.0 10.0 0.00 0.00 0.00 73 1017.6
20260902210037 72 197 5.0 10.0 0.00 0.00 0.00 73 1017.6
20260902210000 72 184 4.0 8.0 0.00 0.00 0.00 73 1017.6
20260902205848 72 184 4.0 7.0 0.00 0.00 0.00 73 1017.6
20260902205729 73 155 5.0 7.0 0.00 0.00 0.00 72 1017.6
20260902205636 73 205 3.0 8.0 0.00 0.00 0.00 72 1017.5
20260902205557 73 205 3.0 8.0 0.00 0.00 0.00 74 1017.4
20260902205520 73 182 1.0 8.0 0.00 0.00 0.00 74 1017.3
20260902205405 72 138 1.0 8.0 0.00 0.00 0.00 74 1017.3
20260902205326 73 138 2.0 8.0 0.00 0.00 0.00 74 1017.3
20260902205157 72 169 3.0 8.0 0.00 0.00 0.00 74 1017.3
20260902205051 72 160 3.0 8.0 0.00 0.00 0.00 73 1017.3
20260902204921 72 132 5.0 8.0 0.00 0.00 0.00 74 1017.3
20260902204843 72 169 6.0 8.0 0.00 0.00 0.00 73 1017.3
20260902204714 72 162 6.0 8.0 0.00 0.00 0.00 73 1017.1
20260902204633 72 190 5.0 8.0 0.00 0.00 0.00 73 1017.1
20260902204444 72 170 5.0 8.0 0.00 0.00 0.00 73 1017.1
20260902204341 72 131 4.0 7.0 0.00 0.00 0.00 73 1017.2
20260902204224 72 173 4.0 7.0 0.00 0.00 0.00 73 1017.2
20260902204127 72 179 4.0 12.0 0.00 0.00 0.00 73 1017.3
20260902204053 72 181 4.0 12.0 0.00 0.00 0.00 73 1017.3
20260902204015 72 178 4.0 12.0 0.00 0.00 0.00 73 1017.3
20260902203937 72 153 3.0 12.0 0.00 0.00 0.00 73 1017.3
20260902203725 72 166 2.0 12.0 0.00 0.00 0.00 74 1017.4
20260902203649 72 142 2.0 12.0 0.00 0.00 0.00 73 1017.5
20260902203553 72 230 2.0 12.0 0.00 0.00 0.00 73 1017.5
20260902203514 72 185 3.0 12.0 0.00 0.00 0.00 73 1017.5
20260902203346 72 163 4.0 12.0 0.00 0.00 0.00 72 1017.5
20260902203259 72 184 3.0 7.0 0.00 0.00 0.00 72 1017.6
20260902203130 72 157 3.0 8.0 0.00 0.00 0.00 73 1017.6
20260902203031 72 126 2.0 10.0 0.00 0.00 0.00 73 1017.6
20260902202835 72 173 3.0 10.0 0.00 0.00 0.00 72 1017.6
20260902202758 72 134 4.0 10.0 0.00 0.00 0.00 72 1017.7
20260902202627 73 131 3.0 10.0 0.00 0.00 0.00 72 1017.7
20260902202542 73 188 4.0 11.0 0.00 0.00 0.00 72 1017.7
20260902202413 73 180 7.0 11.0 0.00 0.00 0.00 71 1017.6
20260902202315 73 163 6.0 11.0 0.00 0.00 0.00 72 1017.7
20260902202216 73 154 6.0 11.0 0.00 0.00 0.00 72 1017.6
20260902202121 73 182 5.0 11.0 0.00 0.00 0.00 72 1017.7
20260902202041 73 151 5.0 11.0 0.00 0.00 0.00 72 1017.7
20260902201911 73 184 4.0 13.0 0.00 0.00 0.00 73 1017.8
20260902201825 73 165 6.0 13.0 0.00 0.00 0.00 72 1017.8
20260902201656 73 155 7.0 13.0 0.00 0.00 0.00 71 1017.9
20260902201618 72 122 3.0 13.0 0.00 0.00 0.00 73 1017.9
20260902201446 72 198 3.0 13.0 0.00 0.00 0.00 73 1017.9
20260902201348 72 202 4.0 13.0 0.00 0.00 0.00 72 1017.9
20260902201218 72 210 7.0 13.0 0.00 0.00 0.00 71 1017.9
20260902201113 72 208 5.0 13.0 0.00 0.00 0.00 72 1017.9
20260902200843 72 168 6.0 11.0 0.00 0.00 0.00 71 1017.9
20260902200738 72 154 6.0 11.0 0.00 0.00 0.00 72 1017.9
20260902200624 72 142 4.0 10.0 0.00 0.00 0.00 72 1017.9
20260902200556 72 189 4.0 15.0 0.00 0.00 0.00 72 1017.9
20260902200519 72 196 4.0 15.0 0.00 0.00 0.00 72 1017.9
20260902200327 72 170 4.0 15.0 0.00 0.00 0.00 72 1017.9
20260902200241 72 263 6.0 15.0 0.00 0.00 0.00 72 1017.9
20260902200110 72 168 4.0 15.0 0.00 0.00 0.00 72 1017.9
20260902200012 72 190 5.0 14.0 0.00 0.00 0.00 72 1017.9
20260902195817 72 223 8.0 14.0 0.00 0.00 0.00 70 1017.9
20260902195742 72 192 8.0 15.0 0.00 0.00 0.00 72 1018.0
20260902195614 72 202 8.0 14.0 0.00 0.00 0.00 71 1018.0
20260902195535 72 150 8.0 14.0 0.00 0.00 0.00 71 1018.0
20260902195407 72 190 6.0 14.0 0.00 0.00 0.00 71 1018.1
20260902195225 72 123 8.0 14.0 0.00 0.00 0.00 70 1018.1
20260902195131 72 202 9.0 14.0 0.00 0.00 0.00 70 1018.1
20260902195032 72 180 6.0 13.0 0.00 0.00 0.00 71 1018.1
20260902194948 72 180 5.0 13.0 0.00 0.00 0.00 72 1018.1
20260902194909 72 164 5.0 13.0 0.00 0.00 0.00 71 1018.2
20260902194832 72 99 4.0 10.0 0.00 0.00 0.00 71 1018.2
20260902194634 72 140 4.0 10.0 0.00 0.00 0.00 72 1018.1
20260902194557 72 167 5.0 10.0 0.00 0.00 0.00 71 1018.1
20260902194503 72 168 4.0 10.0 0.00 0.00 0.00 71 1018.0
20260902194425 72 200 3.0 10.0 0.00 0.00 0.00 71 1018.0
20260902194213 73 161 4.0 10.0 0.00 0.00 0.00 71 1018.0
20260902194128 73 163 6.0 10.0 0.00 0.00 0.00 70 1018.0
20260902194031 73 157 5.0 11.0 0.00 0.00 0.00 70 1018.0
20260902193934 73 145 4.0 10.0 0.00 0.00 0.00 71 1017.9
20260902193831 73 172 4.0 10.0 0.00 0.00 0.00 71 1018.0
20260902193734 73 169 3.0 14.0 0.00 0.00 0.00 71 1018.0
20260902193641 72 192 5.0 14.0 0.00 0.00 0.00 71 1018.0
20260902193556 72 128 5.0 14.0 0.00 0.00 0.00 71 1018.1
20260902193518 72 130 6.0 14.0 0.00 0.00 0.00 71 1018.1
20260902193323 72 181 2.0 14.0 0.00 0.00 0.00 72 1018.1
20260902193225 72 147 2.0 14.0 0.00 0.00 0.00 71 1018.2
20260902193129 72 146 5.0 14.0 0.00 0.00 0.00 72 1018.2
20260902193051 72 169 7.0 14.0 0.00 0.00 0.00 71 1018.2
20260902192922 72 156 3.0 14.0 0.00 0.00 0.00 71 1018.2
20260902192816 72 136 3.0 14.0 0.00 0.00 0.00 72 1018.3
20260902192645 72 207 4.0 14.0 0.00 0.00 0.00 70 1018.2
20260902192548 73 163 4.0 14.0 0.00 0.00 0.00 70 1018.2
20260902192514 73 184 4.0 14.0 0.00 0.00 0.00 70 1018.2
20260902192330 73 237 8.0 14.0 0.00 0.00 0.00 69 1018.3
20260902192251 73 219 8.0 14.0 0.00 0.00 0.00 69 1018.3
20260902192154 73 205 5.0 16.0 0.00 0.00 0.00 69 1018.3
20260902192055 73 176 5.0 16.0 0.00 0.00 0.00 70 1018.3
20260902192017 73 191 4.0 16.0 0.00 0.00 0.00 70 1018.2
20260902191921 73 202 4.0 16.0 0.00 0.00 0.00 70 1018.3
20260902191843 73 178 5.0 16.0 0.00 0.00 0.00 70 1018.3
20260902191625 73 175 8.0 16.0 0.00 0.00 0.00 69 1018.3
20260902191528 73 185 8.0 16.0 0.00 0.00 0.00 69 1018.3
20260902191435 73 159 7.0 17.0 0.00 0.00 0.00 69 1018.3
20260902191335 73 237 6.0 12.0 0.00 0.00 0.00 69 1018.3
20260902191259 73 200 5.0 12.0 0.00 0.00 0.00 69 1018.2
20260902191201 74 214 6.0 12.0 0.00 0.00 0.00 69 1018.2
20260902191043 74 165 7.0 12.0 0.00 0.00 0.00 67 1018.2
20260902190945 74 175 7.0 15.0 0.00 0.00 0.00 68 1018.1
20260902190825 74 177 7.0 11.0 0.00 0.00 0.00 68 1018.1
20260902190728 74 200 8.0 11.0 0.00 0.00 0.00 68 1018.1
20260902190650 74 145 8.0 11.0 0.00 0.00 0.00 68 1018.0
20260902190612 74 123 7.0 12.0 0.00 0.00 0.00 68 1018.0
20260902190337 74 136 8.0 11.0 0.00 0.00 0.00 67 1018.0
20260902190258 74 105 9.0 12.0 0.00 0.00 0.00 67 1018.0
20260902190142 75 138 7.0 16.0 0.00 0.00 0.00 67 1018.1
20260902190104 75 128 7.0 16.0 0.00 0.00 0.00 68 1018.0
20260902185937 75 230 7.0 16.0 0.00 0.00 0.00 67 1018.1
20260902185840 75 190 6.0 16.0 0.00 0.00 0.00 68 1018.0
20260902185724 75 178 6.0 16.0 0.00 0.00 0.00 68 1018.0
20260902185645 75 197 7.0 16.0 0.00 0.00 0.00 68 1018.0
20260902185507 75 142 8.0 16.0 0.00 0.00 0.00 67 1018.0
20260902185434 75 155 8.0 16.0 0.00 0.00 0.00 66 1018.0
20260902185244 75 194 7.0 12.0 0.00 0.00 0.00 68 1018.0
20260902185138 75 171 8.0 11.0 0.00 0.00 0.00 68 1018.0
20260902185023 74 137 7.0 12.0 0.00 0.00 0.00 69 1018.0
20260902184945 74 142 6.0 11.0 0.00 0.00 0.00 69 1018.0
20260902184906 74 182 7.0 11.0 0.00 0.00 0.00 70 1018.0
20260902184812 74 167 6.0 11.0 0.00 0.00 0.00 70 1018.1
20260902184733 74 178 7.0 12.0 0.00 0.00 0.00 69 1018.1
20260902184605 74 145 7.0 11.0 0.00 0.00 0.00 70 1018.0
20260902184520 73 176 7.0 11.0 0.00 0.00 0.00 70 1018.1
20260902184354 73 178 5.0 11.0 0.00 0.00 0.00 69 1018.1
20260902184254 73 155 6.0 11.0 0.00 0.00 0.00 69 1018.1
20260902184140 73 155 7.0 12.0 0.00 0.00 0.00 70 1018.2
20260902184101 73 196 7.0 12.0 0.00 0.00 0.00 70 1018.1
20260902184002 73 197 7.0 13.0 0.00 0.00 0.00 71 1018.2
20260902183906 73 158 7.0 11.0 0.00 0.00 0.00 71 1018.3
20260902183827 73 144 7.0 11.0 0.00 0.00 0.00 70 1018.3
20260902183630 72 204 5.0 11.0 0.00 0.00 0.00 71 1018.4
20260902183531 72 160 6.0 11.0 0.00 0.00 0.00 71 1018.4
20260902183433 72 228 7.0 11.0 0.00 0.00 0.00 71 1018.5
20260902183400 72 221 7.0 11.0 0.00 0.00 0.00 71 1018.5
20260902183224 72 173 6.0 11.0 0.00 0.00 0.00 72 1018.5
20260902183146 72 143 5.0 10.0 0.00 0.00 0.00 72 1018.6
20260902183016 72 168 3.0 10.0 0.00 0.00 0.00 72 1018.6
20260902182931 72 207 4.0 11.0 0.00 0.00 0.00 72 1018.6
20260902182741 72 149 4.0 11.0 0.00 0.00 0.00 71 1018.7
20260902182657 72 202 6.0 11.0 0.00 0.00 0.00 71 1018.7
20260902182505 72 180 5.0 11.0 0.00 0.00 0.00 71 1018.8
20260902182426 72 196 5.0 11.0 0.00 0.00 0.00 71 1018.8
20260902182246 73 187 6.0 11.0 0.00 0.00 0.00 71 1018.7
20260902182123 73 190 5.0 11.0 0.00 0.00 0.00 70 1018.7
20260902182044 73 215 4.0 13.0 0.00 0.00 0.00 70 1018.7
20260902181937 73 150 4.0 11.0 0.00 0.00 0.00 70 1018.7
20260902181857 73 163 5.0 11.0 0.00 0.00 0.00 70 1018.7
20260902181740 73 178 5.0 11.0 0.00 0.00 0.00 70 1018.6
20260902181701 73 154 5.0 11.0 0.00 0.00 0.00 70 1018.6
20260902181623 73 219 5.0 11.0 0.00 0.00 0.00 70 1018.6
20260902181507 73 200 5.0 11.0 0.00 0.00 0.00 70 1018.6
20260902181429 73 155 6.0 11.0 0.00 0.00 0.00 69 1018.6
20260902181258 73 217 8.0 11.0 0.00 0.00 0.00 69 1018.6
20260902181213 74 168 7.0 12.0 0.00 0.00 0.00 69 1018.6
20260902181021 74 234 5.0 9.0 0.00 0.00 0.00 69 1018.5
20260902180925 74 153 5.0 9.0 0.00 0.00 0.00 69 1018.5
20260902180756 74 185 6.0 9.0 0.00 0.00 0.00 71 1018.5
20260902180630 74 209 5.0 8.0 0.00 0.00 0.00 70 1018.4
20260902180535 74 175 4.0 10.0 0.00 0.00 0.00 70 1018.5
20260902180458 74 202 4.0 10.0 0.00 0.00 0.00 70 1018.5
20260902180237 74 141 3.0 10.0 0.00 0.00 0.00 70 1018.5
20260902180130 74 159 3.0 10.0 0.00 0.00 0.00 70 1018.5
20260902175940 74 135 5.0 10.0 0.00 0.00 0.00 70 1018.6
20260902175834 74 167 6.0 10.0 0.00 0.00 0.00 68 1018.6
20260902175723 74 169 7.0 10.0 0.00 0.00 0.00 68 1018.6
20260902175645 74 144 7.0 10.0 0.00 0.00 0.00 68 1018.6
20260902175618 74 176 6.0 10.0 0.00 0.00 0.00 67 1018.6
20260902175442 75 161 5.0 8.0 0.00 0.00 0.00 69 1018.6
20260902175344 74 136 4.0 9.0 0.00 0.00 0.00 69 1018.6
20260902175228 74 151 2.0 9.0 0.00 0.00 0.00 71 1018.6
20260902175148 74 188 2.0 9.0 0.00 0.00 0.00 71 1018.5
20260902175021 74 160 4.0 9.0 0.00 0.00 0.00 69 1018.5
20260902174934 74 196 5.0 9.0 0.00 0.00 0.00 69 1018.5
20260902174804 74 197 5.0 9.0 0.00 0.00 0.00 68 1018.5
20260902174718 74 188 4.0 9.0 0.00 0.00 0.00 68 1018.5
20260902174519 74 139 4.0 9.0 0.00 0.00 0.00 67 1018.6
20260902174426 74 185 4.0 9.0 0.00 0.00 0.00 69 1018.5
20260902174347 74 163 4.0 9.0 0.00 0.00 0.00 70 1018.5
20260902174252 74 126 4.0 10.0 0.00 0.00 0.00 68 1018.6
20260902174214 74 198 5.0 10.0 0.00 0.00 0.00 68 1018.6
20260902174027 74 161 5.0 10.0 0.00 0.00 0.00 68 1018.5
20260902173930 74 178 5.0 10.0 0.00 0.00 0.00 68 1018.6
20260902173831 75 211 5.0 10.0 0.00 0.00 0.00 68 1018.6
20260902173752 75 220 4.0 10.0 0.00 0.00 0.00 69 1018.6
20260902173536 75 148 6.0 10.0 0.00 0.00 0.00 68 1018.6
20260902173457 75 182 6.0 10.0 0.00 0.00 0.00 68 1018.6
20260902173400 75 193 7.0 10.0 0.00 0.00 0.00 66 1018.6
20260902173323 75 175 6.0 11.0 0.00 0.00 0.00 69 1018.6
20260902173135 74 167 5.0 11.0 0.00 0.00 0.00 69 1018.6
20260902173027 74 209 5.0 11.0 0.00 0.00 0.00 69 1018.6
20260902172930 74 172 6.0 11.0 0.00 0.00 0.00 69 1018.6
20260902172835 74 200 6.0 11.0 0.00 0.00 0.00 69 1018.5
20260902172758 74 129 6.0 11.0 0.00 0.00 0.00 69 1018.5
20260902172701 74 180 5.0 11.0 0.00 0.00 0.00 69 1018.5
20260902172622 74 154 6.0 11.0 0.00 0.00 0.00 71 1018.5
20260902172425 74 188 6.0 11.0 0.00 0.00 0.00 69 1018.4
20260902172327 74 152 5.0 9.0 0.00 0.00 0.00 70 1018.4
20260902172230 74 188 4.0 10.0 0.00 0.00 0.00 71 1018.4
20260902172151 74 241 6.0 10.0 0.00 0.00 0.00 71 1018.5
20260902172001 74 193 6.0 10.0 0.00 0.00 0.00 69 1018.5
20260902171916 74 156 6.0 10.0 0.00 0.00 0.00 70 1018.4
20260902171751 73 197 6.0 10.0 0.00 0.00 0.00 69 1018.5
20260902171712 73 129 5.0 10.0 0.00 0.00 0.00 71 1018.5
20260902171634 73 159 5.0 10.0 0.00 0.00 0.00 70 1018.5
20260902171517 73 145 6.0 10.0 0.00 0.00 0.00 69 1018.5
20260902171439 73 192 6.0 10.0 0.00 0.00 0.00 70 1018.5
20260902171259 73 199 4.0 11.0 0.00 0.00 0.00 70 1018.6
20260902171101 73 176 5.0 11.0 0.00 0.00 0.00 69 1018.7
20260902170941 73 147 4.0 11.0 0.00 0.00 0.00 71 1018.7
20260902170835 73 233 4.0 11.0 0.00 0.00 0.00 70 1018.8
20260902170757 73 198 4.0 11.0 0.00 0.00 0.00 69 1018.8
20260902170626 73 164 7.0 11.0 0.00 0.00 0.00 68 1018.8
20260902170542 73 180 8.0 11.0 0.00 0.00 0.00 68 1018.8
20260902170413 73 182 8.0 14.0 0.00 0.00 0.00 68 1018.8
20260902170335 74 138 8.0 14.0 0.00 0.00 0.00 67 1018.8
20260902170053 74 177 5.0 10.0 0.00 0.00 0.00 67 1018.7
20260902165946 74 188 5.0 10.0 0.00 0.00 0.00 69 1018.8
20260902165735 74 180 6.0 12.0 0.00 0.00 0.00 68 1018.8
20260902165632 74 146 7.0 12.0 0.00 0.00 0.00 69 1018.8
20260902165553 74 128 7.0 12.0 0.00 0.00 0.00 68 1018.7
20260902165441 74 194 7.0 12.0 0.00 0.00 0.00 67 1018.8
20260902165401 74 131 8.0 12.0 0.00 0.00 0.00 67 1018.7
20260902165315 74 205 8.0 12.0 0.00 0.00 0.00 68 1018.7
20260902165214 74 168 8.0 10.0 0.00 0.00 0.00 67 1018.6
20260902165116 74 193 9.0 11.0 0.00 0.00 0.00 67 1018.6
20260902164940 74 207 6.0 12.0 0.00 0.00 0.00 69 1018.6
20260902164841 74 176 6.0 12.0 0.00 0.00 0.00 68 1018.5
20260902164726 74 138 7.0 13.0 0.00 0.00 0.00 69 1018.6
20260902164648 74 158 8.0 14.0 0.00 0.00 0.00 68 1018.6
20260902164530 74 136 8.0 14.0 0.00 0.00 0.00 68 1018.5
20260902164437 74 135 7.0 14.0 0.00 0.00 0.00 67 1018.6
20260902164358 74 179 6.0 14.0 0.00 0.00 0.00 68 1018.6
20260902164301 74 247 5.0 14.0 0.00 0.00 0.00 68 1018.6
20260902164200 74 231 5.0 14.0 0.00 0.00 0.00 70 1018.7
20260902164120 74 114 7.0 14.0 0.00 0.00 0.00 68 1018.7
20260902163923 73 135 7.0 14.0 0.00 0.00 0.00 68 1018.8
20260902163838 73 187 7.0 11.0 0.00 0.00 0.00 68 1018.8
20260902163708 73 188 8.0 11.0 0.00 0.00 0.00 67 1018.8
20260902163630 73 197 7.0 11.0 0.00 0.00 0.00 67 1018.8
20260902163435 74 186 7.0 11.0 0.00 0.00 0.00 69 1018.9
20260902163400 74 217 6.0 11.0 0.00 0.00 0.00 69 1018.9
20260902163303 74 204 4.0 11.0 0.00 0.00 0.00 69 1018.9
20260902163202 73 166 3.0 16.0 0.00 0.00 0.00 71 1018.9
20260902163011 73 221 5.0 16.0 0.00 0.00 0.00 69 1018.9
20260902162925 73 154 6.0 16.0 0.00 0.00 0.00 68 1018.9
20260902162755 73 138 7.0 16.0 0.00 0.00 0.00 69 1019.0
20260902162717 73 152 7.0 16.0 0.00 0.00 0.00 67 1019.0
20260902162546 73 113 7.0 16.0 0.00 0.00 0.00 68 1019.2
20260902162421 73 157 9.0 16.0 0.00 0.00 0.00 69 1019.1
20260902162334 74 180 9.0 16.0 0.00 0.00 0.00 67 1019.1
20260902162254 74 163 8.0 14.0 0.00 0.00 0.00 67 1019.1
20260902162218 74 176 7.0 14.0 0.00 0.00 0.00 67 1019.1
20260902162122 74 179 6.0 14.0 0.00 0.00 0.00 69 1019.1
20260902162044 74 152 6.0 14.0 0.00 0.00 0.00 67 1019.1
20260902161914 74 114 7.0 14.0 0.00 0.00 0.00 68 1019.1
20260902161828 74 126 7.0 14.0 0.00 0.00 0.00 68 1019.1
20260902161638 74 150 6.0 14.0 0.00 0.00 0.00 70 1019.1
20260902161531 74 140 4.0 12.0 0.00 0.00 0.00 71 1019.0
20260902161424 74 156 6.0 12.0 0.00 0.00 0.00 71 1019.0
20260902161346 74 175 7.0 12.0 0.00 0.00 0.00 69 1019.0
20260902161215 73 163 7.0 11.0 0.00 0.00 0.00 71 1019.0
20260902161133 73 136 7.0 11.0 0.00 0.00 0.00 70 1019.0
20260902160944 73 223 7.0 11.0 0.00 0.00 0.00 69 1019.1
20260902160838 73 160 7.0 11.0 0.00 0.00 0.00 72 1019.1
20260902160731 73 149 6.0 10.0 0.00 0.00 0.00 72 1019.1
20260902160653 73 191 4.0 10.0 0.00 0.00 0.00 71 1019.1
20260902160434 73 150 5.0 9.0 0.00 0.00 0.00 71 1019.2
20260902160335 73 152 5.0 9.0 0.00 0.00 0.00 72 1019.2
20260902160223 73 162 4.0 8.0 0.00 0.00 0.00 72 1019.2
20260902160145 73 157 4.0 8.0 0.00 0.00 0.00 73 1019.2
20260902160108 73 204 5.0 8.0 0.00 0.00 0.00 72 1019.2
20260902155951 73 160 4.0 8.0 0.00 0.00 0.00 71 1019.3
20260902155914 72 187 3.0 8.0 0.00 0.00 0.00 72 1019.4
20260902155744 72 238 4.0 8.0 0.00 0.00 0.00 74 1019.4
20260902155637 72 176 5.0 8.0 0.00 0.00 0.00 71 1019.4
20260902155506 72 217 5.0 10.0 0.00 0.00 0.00 73 1019.4
20260902155429 72 170 5.0 9.0 0.00 0.00 0.00 73 1019.4
20260902155231 72 159 4.0 11.0 0.00 0.00 0.00 73 1019.4
20260902155154 72 205 3.0 11.0 0.00 0.00 0.00 75 1019.4
20260902155042 72 159 4.0 11.0 0.00 0.00 0.00 72 1019.5
20260902154945 72 118 3.0 11.0 0.00 0.00 0.00 74 1019.5
20260902154827 72 172 3.0 11.0 0.00 0.00 0.00 74 1019.5
20260902154748 72 178 3.0 11.0 0.00 0.00 0.00 74 1019.5
20260902154709 72 259 3.0 11.0 0.00 0.00 0.00 74 1019.5
20260902154613 72 186 5.0 11.0 0.00 0.00 0.00 73 1019.5
20260902154536 72 158 7.0 11.0 0.00 0.00 0.00 73 1019.5
20260902154405 72 178 7.0 12.0 0.00 0.00 0.00 73 1019.5
20260902154321 72 164 6.0 11.0 0.00 0.00 0.00 73 1019.5
20260902154129 71 175 6.0 11.0 0.00 0.00 0.00 73 1019.5
20260902154043 71 164 5.0 11.0 0.00 0.00 0.00 74 1019.5
20260902153919 71 174 3.0 11.0 0.00 0.00 0.00 75 1019.5
20260902153840 71 178 5.0 11.0 0.00 0.00 0.00 73 1019.5
20260902153641 71 176 7.0 11.0 0.00 0.00 0.00 73 1019.5
20260902153602 71 123 7.0 11.0 0.00 0.00 0.00 72 1019.5
20260902153506 71 173 6.0 11.0 0.00 0.00 0.00 73 1019.5
20260902153427 71 145 6.0 11.0 0.00 0.00 0.00 74 1019.5
20260902153246 71 104 5.0 14.0 0.00 0.00 0.00 73 1019.5
20260902153146 71 154 5.0 14.0 0.00 0.00 0.00 73 1019.5
20260902153027 71 183 6.0 14.0 0.00 0.00 0.00 74 1019.5
20260902152949 71 172 5.0 14.0 0.00 0.00 0.00 74 1019.5
20260902152731 71 194 5.0 14.0 0.00 0.00 0.00 74 1019.6
20260902152636 71 173 6.0 14.0 0.00 0.00 0.00 75 1019.5
20260902152540 71 127 8.0 14.0 0.00 0.00 0.00 74 1019.6
20260902152501 71 134 8.0 14.0 0.00 0.00 0.00 75 1019.5
20260902152326 71 144 6.0 12.0 0.00 0.00 0.00 74 1019.5
20260902152246 71 203 6.0 12.0 0.00 0.00 0.00 74 1019.6
20260902152207 71 180 5.0 12.0 0.00 0.00 0.00 74 1019.5
20260902152112 71 178 6.0 12.0 0.00 0.00 0.00 74 1019.5
20260902152034 71 209 6.0 12.0 0.00 0.00 0.00 74 1019.5
20260902151903 71 182 5.0 9.0 0.00 0.00 0.00 76 1019.5
20260902151818 71 142 6.0 9.0 0.00 0.00 0.00 73 1019.5
20260902151647 70 138 5.0 9.0 0.00 0.00 0.00 75 1019.5
20260902151551 70 193 4.0 10.0 0.00 0.00 0.00 75 1019.5
20260902151512 70 162 4.0 10.0 0.00 0.00 0.00 75 1019.5
20260902151416 70 148 5.0 12.0 0.00 0.00 0.00 76 1019.4
20260902151316 70 149 6.0 12.0 0.00 0.00 0.00 75 1019.4
20260902151148 70 115 5.0 12.0 0.00 0.00 0.00 76 1019.4
20260902151023 70 162 4.0 12.0 0.00 0.00 0.00 75 1019.5
20260902150926 70 176 4.0 12.0 0.00 0.00 0.00 75 1019.5
20260902150859 70 115 5.0 12.0 0.00 0.00 0.00 75 1019.4
20260902150708 70 168 8.0 12.0 0.00 0.00 0.00 75 1019.5
20260902150624 70 215 8.0 14.0 0.00 0.00 0.00 75 1019.5
20260902150453 70 209 7.0 14.0 0.00 0.00 0.00 74 1019.5
20260902150420 70 173 7.0 14.0 0.00 0.00 0.00 74 1019.4
20260902150241 70 120 7.0 14.0 0.00 0.00 0.00 74 1019.4
20260902150204 70 159 9.0 14.0 0.00 0.00 0.00 74 1019.4
20260902150012 70 177 7.0 14.0 0.00 0.00 0.00 74 1019.4
20260902145906 70 196 7.0 14.0 0.00 0.00 0.00 75 1019.3
20260902145726 70 176 5.0 10.0 0.00 0.00 0.00 76 1019.5
20260902145627 70 148 6.0 10.0 0.00 0.00 0.00 76 1019.5
20260902145429 70 165 5.0 9.0 0.00 0.00 0.00 75 1019.6
20260902145351 70 127 5.0 9.0 0.00 0.00 0.00 76 1019.6
20260902145233 70 179 6.0 9.0 0.00 0.00 0.00 75 1019.6
20260902145157 70 159 6.0 9.0 0.00 0.00 0.00 75 1019.7
20260902145103 70 193 7.0 10.0 0.00 0.00 0.00 75 1019.7
20260902145025 70 141 6.0 10.0 0.00 0.00 0.00 76 1019.7
20260902144828 70 188 4.0 10.0 0.00 0.00 0.00 75 1019.7
20260902144729 70 147 5.0 10.0 0.00 0.00 0.00 76 1019.8
20260902144633 70 190 6.0 10.0 0.00 0.00 0.00 75 1019.8
20260902144556 70 185 6.0 10.0 0.00 0.00 0.00 75 1019.8
20260902144517 70 137 6.0 10.0 0.00 0.00 0.00 75 1019.9
20260902144421 70 167 7.0 10.0 0.00 0.00 0.00 75 1019.9
20260902144322 70 153 7.0 10.0 0.00 0.00 0.00 75 1019.9
20260902144136 70 163 6.0 9.0 0.00 0.00 0.00 75 1020.0
20260902144030 70 157 4.0 11.0 0.00 0.00 0.00 76 1019.9
20260902143951 70 165 3.0 11.0 0.00 0.00 0.00 76 1020.0
20260902143855 70 189 3.0 11.0 0.00 0.00 0.00 76 1020.0
20260902143818 70 156 3.0 11.0 0.00 0.00 0.00 76 1020.0
20260902143647 70 176 3.0 11.0 0.00 0.00 0.00 77 1020.0
20260902143602 69 176 5.0 11.0 0.00 0.00 0.00 77 1020.1
20260902143431 69 187 6.0 11.0 0.00 0.00 0.00 74 1020.0
20260902143332 69 182 7.0 11.0 0.00 0.00 0.00 74 1020.0
20260902143135 69 171 5.0 9.0 0.00 0.00 0.00 75 1020.0
20260902143054 69 169 5.0 9.0 0.00 0.00 0.00 75 1020.0
20260902142940 69 167 5.0 9.0 0.00 0.00 0.00 76 1020.0
20260902142902 69 167 5.0 9.0 0.00 0.00 0.00 76 1020.0
20260902142804 69 223 4.0 9.0 0.00 0.00 0.00 76 1019.9
20260902142705 69 209 2.0 8.0 0.00 0.00 0.00 77 1019.9
20260902142627 69 147 2.0 8.0 0.00 0.00 0.00 77 1019.9
20260902142429 69 174 3.0 8.0 0.00 0.00 0.00 76 1019.9
20260902142331 69 225 3.0 8.0 0.00 0.00 0.00 76 1019.9
20260902142234 69 168 3.0 8.0 0.00 0.00 0.00 77 1019.9
20260902142157 69 191 4.0 8.0 0.00 0.00 0.00 76 1019.9
20260902142026 69 154 4.0 8.0 0.00 0.00 0.00 76 1019.9
20260902141923 69 161 3.0 9.0 0.00 0.00 0.00 77 1019.9
20260902141753 69 213 3.0 8.0 0.00 0.00 0.00 76 1020.0
20260902141714 69 159 3.0 8.0 0.00 0.00 0.00 76 1019.9
20260902141558 69 149 3.0 8.0 0.00 0.00 0.00 76 1020.0
20260902141458 69 119 3.0 8.0 0.00 0.00 0.00 77 1019.9
20260902141327 69 163 4.0 12.0 0.00 0.00 0.00 76 1019.9
20260902141222 69 163 5.0 12.0 0.00 0.00 0.00 77 1019.9
20260902141052 69 192 4.0 12.0 0.00 0.00 0.00 77 1019.8
20260902141015 69 184 3.0 12.0 0.00 0.00 0.00 78 1019.8
20260902140844 69 157 2.0 12.0 0.00 0.00 0.00 77 1019.8
20260902140738 69 159 3.0 12.0 0.00 0.00 0.00 77 1019.8
20260902140625 69 174 6.0 12.0 0.00 0.00 0.00 76 1019.8
20260902140546 69 134 6.0 12.0 0.00 0.00 0.00 76 1019.8
20260902140509 69 152 5.0 8.0 0.00 0.00 0.00 76 1019.7
20260902140413 69 207 3.0 6.0 0.00 0.00 0.00 77 1019.8
20260902140335 69 205 3.0 6.0 0.00 0.00 0.00 77 1019.8
20260902140204 69 171 4.0 7.0 0.00 0.00 0.00 76 1019.6
20260902140118 69 200 3.0 7.0 0.00 0.00 0.00 76 1019.6
20260902135929 69 193 2.0 7.0 0.00 0.00 0.00 77 1019.5
20260902135844 69 196 1.0 7.0 0.00 0.00 0.00 77 1019.4
20260902135634 69 225 2.0 7.0 0.00 0.00 0.00 77 1019.4
20260902135534 69 208 3.0 8.0 0.00 0.00 0.00 77 1019.4
20260902135429 69 188 3.0 8.0 0.00 0.00 0.00 77 1019.3
20260902135350 69 163 3.0 8.0 0.00 0.00 0.00 78 1019.3
20260902135142 69 188 2.0 8.0 0.00 0.00 0.00 77 1019.4
20260902135055 69 188 3.0 8.0 0.00 0.00 0.00 77 1019.4
20260902134833 69 190 4.0 8.0 0.00 0.00 0.00 77 1019.4
20260902134733 69 161 5.0 8.0 0.00 0.00 0.00 76 1019.4
20260902134536 69 153 4.0 8.0 0.00 0.00 0.00 77 1019.4
20260902134457 69 146 4.0 6.0 0.00 0.00 0.00 76 1019.4
20260902134326 69 179 4.0 6.0 0.00 0.00 0.00 76 1019.4
20260902134240 69 193 3.0 6.0 0.00 0.00 0.00 77 1019.4
20260902134110 69 163 2.0 5.0 0.00 0.00 0.00 76 1019.5
20260902134031 69 184 2.0 5.0 0.00 0.00 0.00 76 1019.5
20260902133835 69 196 3.0 7.0 0.00 0.00 0.00 77 1019.5
20260902133755 69 170 3.0 7.0 0.00 0.00 0.00 77 1019.5
20260902133658 69 168 2.0 7.0 0.00 0.00 0.00 77 1019.5
20260902133540 69 113 3.0 7.0 0.00 0.00 0.00 77 1019.5
20260902133442 69 168 3.0 7.0 0.00 0.00 0.00 76 1019.5
20260902133347 69 157 3.0 7.0 0.00 0.00 0.00 76 1019.5
20260902133229 69 157 3.0 7.0 0.00 0.00 0.00 77 1019.6
20260902133149 69 193 3.0 7.0 0.00 0.00 0.00 76 1019.5
20260902133109 69 151 4.0 7.0 0.00 0.00 0.00 76 1019.6
20260902133014 69 122 3.0 7.0 0.00 0.00 0.00 76 1019.5
20260902132914 69 164 3.0 7.0 0.00 0.00 0.00 76 1019.5
20260902132729 69 126 4.0 6.0 0.00 0.00 0.00 77 1019.4
20260902132630 69 172 3.0 6.0 0.00 0.00 0.00 76 1019.3
20260902132523 69 140 4.0 7.0 0.00 0.00 0.00 76 1019.4
20260902132429 69 186 4.0 7.0 0.00 0.00 0.00 76 1019.3
20260902132325 69 165 5.0 8.0 0.00 0.00 0.00 76 1019.3
20260902132246 69 161 4.0 8.0 0.00 0.00 0.00 76 1019.3
20260902132141 69 146 4.0 8.0 0.00 0.00 0.00 76 1019.3
20260902132025 69 136 4.0 8.0 0.00 0.00 0.00 76 1019.3
20260902131947 69 155 3.0 8.0 0.00 0.00 0.00 76 1019.3
20260902131755 69 199 4.0 8.0 0.00 0.00 0.00 76 1019.3
20260902131722 69 195 5.0 8.0 0.00 0.00 0.00 76 1019.3
20260902131532 69 187 5.0 8.0 0.00 0.00 0.00 75 1019.3
20260902131440 70 159 6.0 8.0 0.00 0.00 0.00 75 1019.2
20260902131323 70 178 5.0 9.0 0.00 0.00 0.00 75 1019.2
20260902131244 70 186 5.0 9.0 0.00 0.00 0.00 76 1019.2
20260902131114 70 200 5.0 9.0 0.00 0.00 0.00 75 1019.0
20260902131027 70 163 5.0 6.0 0.00 0.00 0.00 75 1019.0
20260902130857 70 170 3.0 8.0 0.00 0.00 0.00 76 1019.0
20260902130820 70 136 3.0 8.0 0.00 0.00 0.00 77 1019.0
20260902130623 69 146 2.0 8.0 0.00 0.00 0.00 78 1019.0
20260902130525 69 167 3.0 8.0 0.00 0.00 0.00 77 1019.0
20260902130433 69 186 4.0 8.0 0.00 0.00 0.00 75 1019.0
20260902130333 69 144 4.0 8.0 0.00 0.00 0.00 76 1019.0
20260902130136 69 202 5.0 8.0 0.00 0.00 0.00 76 1019.0
20260902130037 69 142 6.0 10.0 0.00 0.00 0.00 76 1019.1
20260902125941 69 200 5.0 8.0 0.00 0.00 0.00 76 1019.1
20260902125902 69 113 4.0 7.0 0.00 0.00 0.00 76 1019.1
20260902125710 69 134 4.0 7.0 0.00 0.00 0.00 76 1019.1
20260902125627 69 171 4.0 7.0 0.00 0.00 0.00 76 1019.1
20260902125456 69 128 3.0 7.0 0.00 0.00 0.00 76 1019.2
20260902125417 69 169 4.0 7.0 0.00 0.00 0.00 76 1019.2
20260902125242 69 180 5.0 7.0 0.00 0.00 0.00 76 1019.2
20260902125203 69 190 5.0 7.0 0.00 0.00 0.00 76 1019.2
20260902125013 69 149 4.0 7.0 0.00 0.00 0.00 75 1019.2
20260902124927 69 159 4.0 8.0 0.00 0.00 0.00 76 1019.2
20260902124759 69 173 4.0 8.0 0.00 0.00 0.00 76 1019.1
20260902124720 69 198 3.0 8.0 0.00 0.00 0.00 77 1019.1
20260902124523 69 213 2.0 8.0 0.00 0.00 0.00 76 1019.2
20260902124446 69 165 3.0 8.0 0.00 0.00 0.00 76 1019.2
20260902124349 69 154 3.0 8.0 0.00 0.00 0.00 76 1019.2
20260902124250 69 172 5.0 8.0 0.00 0.00 0.00 76 1019.2
20260902124031 69 167 4.0 8.0 0.00 0.00 0.00 76 1019.2
20260902123938 69 194 3.0 8.0 0.00 0.00 0.00 77 1019.2
20260902123823 69 214 3.0 8.0 0.00 0.00 0.00 77 1019.2
20260902123744 69 205 3.0 8.0 0.00 0.00 0.00 77 1019.2
20260902123614 69 168 2.0 8.0 0.00 0.00 0.00 79 1019.2
20260902123529 69 255 3.0 8.0 0.00 0.00 0.00 78 1019.2
20260902123340 69 168 5.0 8.0 0.00 0.00 0.00 77 1019.1
20260902123254 68 169 5.0 8.0 0.00 0.00 0.00 77 1019.2
20260902123043 68 209 4.0 8.0 0.00 0.00 0.00 77 1019.1
20260902122941 68 149 4.0 8.0 0.00 0.00 0.00 78 1019.0
20260902122824 68 168 4.0 8.0 0.00 0.00 0.00 77 1019.1
20260902122744 68 175 5.0 8.0 0.00 0.00 0.00 78 1019.0
20260902122615 68 196 4.0 8.0 0.00 0.00 0.00 77 1019.1
20260902122527 68 173 4.0 8.0 0.00 0.00 0.00 78 1019.1
20260902122357 68 147 4.0 8.0 0.00 0.00 0.00 78 1019.1
20260902122320 68 173 2.0 9.0 0.00 0.00 0.00 80 1019.1
20260902122123 68 140 1.0 3.0 0.00 0.00 0.00 80 1019.1
20260902122026 68 163 1.0 3.0 0.00 0.00 0.00 82 1019.1
20260902121904 68 162 1.0 3.0 0.00 0.00 0.00 81 1019.2
20260902121830 68 162 1.0 3.0 0.00 0.00 0.00 81 1019.2
20260902121632 67 162 1.0 4.0 0.00 0.00 0.00 80 1019.2
20260902121533 67 155 0.0 3.0 0.00 0.00 0.00 80 1019.2
20260902121437 67 151 0.0 3.0 0.00 0.00 0.00 81 1019.2
20260902121357 67 151 0.0 3.0 0.00 0.00 0.00 81 1019.2
20260902121319 67 151 1.0 3.0 0.00 0.00 0.00 80 1019.2
20260902121142 67 151 0.0 3.0 0.00 0.00 0.00 81 1019.2
20260902121103 67 151 0.0 3.0 0.00 0.00 0.00 81 1019.2
20260902121029 67 151 1.0 3.0 0.00 0.00 0.00 81 1019.2
20260902120908 67 151 1.0 3.0 0.00 0.00 0.00 81 1019.3
20260902120834 67 152 1.0 3.0 0.00 0.00 0.00 81 1019.3
20260902120636 67 152 1.0 2.0 0.00 0.00 0.00 80 1019.4
20260902120540 67 152 1.0 2.0 0.00 0.00 0.00 81 1019.4
20260902120439 67 152 1.0 3.0 0.00 0.00 0.00 82 1019.4
20260902120340 67 152 1.0 3.0 0.00 0.00 0.00 82 1019.4
20260902120209 67 152 1.0 3.0 0.00 0.00 0.00 81 1019.5
20260902120124 67 152 1.0 3.0 0.00 0.00 0.00 81 1019.5
20260902115935 67 151 0.0 3.0 0.00 0.00 0.00 82 1019.4
20260902115829 67 151 0.0 3.0 0.00 0.00 0.00 81 1019.4
20260902115755 67 151 0.0 3.0 0.00 0.00 0.00 81 1019.4
20260902115657 67 151 1.0 3.0 0.00 0.00 0.00 81 1019.4
20260902115619 67 151 1.0 3.0 0.00 0.00 0.00 81 1019.4
20260902115447 67 189 1.0 3.0 0.00 0.00 0.00 81 1019.4
20260902115342 67 162 2.0 3.0 0.00 0.00 0.00 81 1019.4
20260902115225 67 162 2.0 3.0 0.00 0.00 0.00 81 1019.4
20260902115146 67 146 1.0 3.0 0.00 0.00 0.00 81 1019.3
20260902115108 67 180 1.0 3.0 0.00 0.00 0.00 81 1019.3
20260902115010 67 180 0.0 3.0 0.00 0.00 0.00 82 1019.3
20260902114932 67 180 0.0 3.0 0.00 0.00 0.00 82 1019.3
20260902114719 67 213 0.0 3.0 0.00 0.00 0.00 82 1019.4
20260902114624 67 213 1.0 3.0 0.00 0.00 0.00 81 1019.4
20260902114525 67 213 1.0 3.0 0.00 0.00 0.00 81 1019.4
20260902114447 67 211 1.0 3.0 0.00 0.00 0.00 82 1019.4
20260902114328 67 211 1.0 3.0 0.00 0.00 0.00 81 1019.4
20260902114250 67 207 0.0 3.0 0.00 0.00 0.00 82 1019.4
20260902114056 67 207 0.0 3.0 0.00 0.00 0.00 82 1019.3
20260902114012 67 207 0.0 3.0 0.00 0.00 0.00 82 1019.3
20260902113800 67 207 0.0 3.0 0.00 0.00 0.00 81 1019.3
20260902113722 66 225 0.0 3.0 0.00 0.00 0.00 82 1019.3
20260902113528 66 225 1.0 3.0 0.00 0.00 0.00 82 1019.3
20260902113449 66 225 2.0 3.0 0.00 0.00 0.00 82 1019.3
20260902113332 66 224 1.0 3.0 0.00 0.00 0.00 83 1019.4
20260902113253 66 158 0.0 1.0 0.00 0.00 0.00 85 1019.3
20260902113034 66 158 0.0 1.0 0.00 0.00 0.00 83 1019.2
20260902112935 66 158 0.0 1.0 0.00 0.00 0.00 84 1019.3
20260902112836 66 158 0.0 1.0 0.00 0.00 0.00 84 1019.3
20260902112758 66 158 0.0 0.0 0.00 0.00 0.00 85 1019.3
20260902112628 66 158 0.0 0.0 0.00 0.00 0.00 84 1019.3
20260902112527 66 158 0.0 0.0 0.00 0.00 0.00 83 1019.3
20260902112356 66 158 0.0 0.0 0.00 0.00 0.00 83 1019.3
20260902112317 66 158 0.0 0.0 0.00 0.00 0.00 84 1019.3
20260902112159 66 158 0.0 0.0 0.00 0.00 0.00 84 1019.3
20260902112122 66 158 0.0 0.0 0.00 0.00 0.00 84 1019.3
20260902112044 66 158 0.0 0.0 0.00 0.00 0.00 83 1019.3
20260902111908 66 158 0.0 0.0 0.00 0.00 0.00 85 1019.3
20260902111829 66 158 0.0 0.0 0.00 0.00 0.00 84 1019.3
20260902111659 66 158 0.0 0.0 0.00 0.00 0.00 85 1019.4
20260902111531 66 158 0.0 0.0 0.00 0.00 0.00 85 1019.4
20260902111433 66 158 0.0 2.0 0.00 0.00 0.00 84 1019.4
20260902111330 66 158 0.0 2.0 0.00 0.00 0.00 84 1019.4
20260902111250 66 158 0.0 2.0 0.00 0.00 0.00 84 1019.4
20260902111154 66 158 0.0 2.0 0.00 0.00 0.00 84 1019.4
20260902111117 66 158 0.0 2.0 0.00 0.00 0.00 83 1019.4
20260902110946 66 158 0.0 2.0 0.00 0.00 0.00 83 1019.4
20260902110841 66 158 0.0 2.0 0.00 0.00 0.00 84 1019.4
20260902110724 66 158 0.0 2.0 0.00 0.00 0.00 83 1019.3
20260902110644 66 158 0.0 2.0 0.00 0.00 0.00 83 1019.3
20260902110606 66 158 0.0 2.0 0.00 0.00 0.00 84 1019.4
20260902110510 66 158 0.0 1.0 0.00 0.00 0.00 84 1019.4
20260902110437 66 158 0.0 1.0 0.00 0.00 0.00 84 1019.4
20260902110307 66 158 0.0 1.0 0.00 0.00 0.00 83 1019.4
20260902110229 66 158 0.0 1.0 0.00 0.00 0.00 83 1019.4
20260902110031 66 158 0.0 2.0 0.00 0.00 0.00 84 1019.5
20260902105952 66 158 0.0 2.0 0.00 0.00 0.00 83 1019.4
20260902105855 66 158 0.0 2.0 0.00 0.02 0.00 84 1019.4
20260902105817 66 158 0.0 2.0 0.00 0.02 0.00 84 1019.4
20260902105646 66 158 0.0 2.0 0.00 0.02 0.00 84 1019.4
20260902105540 66 158 0.0 2.0 0.00 0.02 0.00 83 1019.4
20260902105440 66 158 0.0 2.0 0.00 0.02 0.00 83 1019.4
20260902105354 66 158 0.0 2.0 0.00 0.02 0.00 83 1019.4
20260902105322 66 158 0.0 2.0 0.00 0.02 0.00 83 1019.4
20260902105243 66 158 0.0 1.0 0.00 0.02 0.00 84 1019.4
20260902105105 66 158 0.0 1.0 0.00 0.02 0.00 84 1019.4
20260902105027 66 158 0.0 1.0 0.00 0.02 0.00 84 1019.4
20260902104838 66 158 0.0 1.0 0.00 0.02 0.00 84 1019.4
20260902104720 66 158 0.0 1.0 0.00 0.02 0.00 83 1019.4
20260902104651 66 158 0.0 2.0 0.00 0.02 0.00 83 1019.4
20260902104554 66 158 0.0 2.0 0.00 0.02 0.00 83 1019.3
20260902104514 66 158 0.0 2.0 0.00 0.02 0.00 82 1019.4
20260902104414 66 158 0.0 2.0 0.00 0.02 0.00 82 1019.4
20260902104319 66 158 0.0 2.0 0.00 0.02 0.00 83 1019.3
20260902104244 66 158 0.0 2.0 0.00 0.02 0.00 83 1019.3
20260902104115 66 158 0.0 2.0 0.00 0.02 0.00 83 1019.2
20260902104009 66 158 0.0 3.0 0.00 0.02 0.00 83 1019.2
20260902103816 66 158 0.0 3.0 0.00 0.02 0.00 83 1019.2
20260902103738 66 158 0.0 3.0 0.00 0.02 0.00 83 1019.2
20260902103606 66 158 0.0 3.0 0.00 0.02 0.00 82 1019.2
20260902103531 66 158 1.0 3.0 0.00 0.02 0.00 82 1019.2
20260902103401 66 158 1.0 3.0 0.00 0.02 0.00 83 1019.1
20260902103322 66 158 2.0 3.0 0.00 0.02 0.00 83 1019.1
20260902103053 66 159 1.0 3.0 0.00 0.02 0.00 82 1019.1
20260902103027 66 159 1.0 3.0 0.00 0.02 0.00 83 1019.1
20260902102855 66 204 0.0 3.0 0.00 0.02 0.00 83 1019.2
20260902102749 66 204 1.0 3.0 0.00 0.02 0.00 83 1019.2
20260902102622 66 204 1.0 4.0 0.00 0.02 0.00 84 1019.2
20260902102523 66 178 1.0 4.0 0.00 0.02 0.00 83 1019.2
20260902102326 66 178 1.0 4.0 0.00 0.02 0.00 83 1019.2
20260902102248 66 178 1.0 4.0 0.00 0.02 0.00 83 1019.1
20260902102131 66 171 1.0 4.0 0.00 0.02 0.00 82 1019.1
20260902102051 66 169 0.0 4.0 0.00 0.02 0.00 84 1019.1
20260902102013 66 169 1.0 4.0 0.00 0.02 0.00 83 1019.0
20260902101853 66 169 2.0 4.0 0.00 0.02 0.00 82 1019.0
20260902101753 66 169 2.0 4.0 0.00 0.02 0.00 83 1019.0
20260902101715 66 175 1.0 3.0 0.00 0.02 0.00 83 1019.0
20260902101619 66 154 1.0 3.0 0.00 0.02 0.00 83 1019.0
20260902101544 66 154 0.0 4.0 0.00 0.02 0.00 83 1019.0
20260902101415 66 154 1.0 4.0 0.00 0.02 0.00 83 1019.0
20260902101329 66 154 1.0 4.0 0.00 0.02 0.00 83 1019.0
20260902101140 66 151 2.0 4.0 0.00 0.02 0.00 83 1019.0
20260902101035 66 146 1.0 4.0 0.00 0.02 0.00 83 1019.0
20260902100929 66 174 1.0 4.0 0.00 0.02 0.00 83 1019.0
20260902100831 66 169 1.0 4.0 0.00 0.02 0.00 83 1019.0
20260902100731 66 169 1.0 4.0 0.00 0.02 0.00 83 1019.0
20260902100636 66 174 1.0 3.0 0.00 0.02 0.00 83 1019.0
20260902100557 66 174 1.0 3.0 0.00 0.02 0.00 84 1018.9
20260902100500 66 174 0.0 3.0 0.00 0.02 0.00 83 1019.0
20260902100422 66 174 0.0 3.0 0.00 0.02 0.00 83 1019.0
20260902100224 66 174 1.0 3.0 0.00 0.02 0.00 83 1018.9
20260902100125 66 161 0.0 3.0 0.00 0.02 0.00 83 1019.0
20260902100029 66 161 1.0 3.0 0.00 0.02 0.00 83 1018.9
20260902095951 66 161 1.0 3.0 0.00 0.02 0.00 83 1018.9
20260902095820 66 191 1.0 3.0 0.00 0.02 0.00 83 1018.9
20260902095734 66 191 1.0 3.0 0.00 0.02 0.00 83 1018.9
20260902095602 66 191 1.0 3.0 0.00 0.02 0.00 83 1018.9
20260902095529 66 194 1.0 3.0 0.00 0.02 0.00 83 1018.9
20260902095331 66 171 1.0 3.0 0.00 0.02 0.00 83 1018.8
20260902095252 66 171 2.0 3.0 0.00 0.02 0.00 83 1018.8
20260902095155 66 179 2.0 3.0 0.00 0.02 0.00 83 1018.8
20260902095036 66 186 1.0 3.0 0.00 0.02 0.00 84 1018.8
20260902094958 66 165 0.0 3.0 0.00 0.02 0.00 84 1018.8
20260902094900 66 165 0.0 5.0 0.00 0.02 0.00 84 1018.8
20260902094822 66 165 0.0 5.0 0.00 0.02 0.00 84 1018.8
20260902094626 66 165 1.0 5.0 0.00 0.02 0.00 83 1018.7
20260902094532 66 165 1.0 5.0 0.00 0.02 0.00 84 1018.8
20260902094436 66 159 2.0 5.0 0.00 0.02 0.00 84 1018.7
20260902094336 66 157 2.0 5.0 0.00 0.02 0.00 84 1018.7
20260902094207 66 200 2.0 5.0 0.00 0.02 0.00 85 1018.7
20260902094121 66 194 2.0 5.0 0.00 0.02 0.00 85 1018.7
20260902093931 66 171 1.0 2.0 0.00 0.02 0.00 84 1018.8
20260902093847 66 171 0.0 2.0 0.00 0.02 0.00 84 1018.8
20260902093715 66 193 0.0 2.0 0.00 0.02 0.00 84 1018.8
20260902093638 66 193 0.0 2.0 0.00 0.02 0.00 85 1018.8
20260902093440 66 193 0.0 2.0 0.00 0.02 0.00 85 1018.9
20260902093346 66 192 0.0 2.0 0.00 0.02 0.00 85 1018.9
20260902093251 66 191 0.0 2.0 0.00 0.02 0.00 85 1018.9
20260902093212 66 191 0.0 2.0 0.00 0.02 0.00 85 1018.9
20260902093112 66 191 0.0 2.0 0.00 0.02 0.00 85 1018.9
20260902093014 66 191 1.0 2.0 0.00 0.02 0.00 85 1018.9
20260902092936 66 191 1.0 2.0 0.00 0.02 0.00 85 1018.9
20260902092806 66 163 1.0 2.0 0.00 0.02 0.00 84 1018.9
20260902092722 66 165 0.0 3.0 0.00 0.02 0.00 86 1018.9
20260902092644 66 148 0.0 1.0 0.00 0.02 0.00 86 1018.9
20260902092513 66 148 0.0 1.0 0.00 0.02 0.00 85 1018.8
20260902092428 66 148 0.0 1.0 0.00 0.02 0.00 86 1018.8
20260902092259 66 148 0.0 1.0 0.00 0.02 0.00 85 1018.8
20260902092220 66 148 0.0 1.0 0.00 0.02 0.00 86 1018.8
20260902092027 66 148 0.0 1.0 0.00 0.02 0.00 86 1018.8
20260902091929 66 148 0.0 1.0 0.00 0.02 0.00 86 1018.8
20260902091833 66 148 0.0 1.0 0.00 0.02 0.00 86 1018.8
20260902091755 66 148 0.0 1.0 0.00 0.02 0.00 86 1018.7
20260902091604 66 148 0.0 0.0 0.00 0.02 0.00 86 1018.7
20260902091520 66 148 0.0 1.0 0.00 0.02 0.00 86 1018.7
20260902091319 66 148 0.0 1.0 0.00 0.02 0.00 86 1018.7
20260902091141 66 148 0.0 1.0 0.00 0.02 0.00 86 1018.8
20260902091042 66 148 0.0 2.0 0.00 0.02 0.00 86 1018.8
20260902090928 66 148 0.0 2.0 0.00 0.02 0.00 85 1018.8
20260902090859 66 148 0.0 3.0 0.00 0.02 0.00 86 1018.8
20260902090758 66 148 0.0 3.0 0.00 0.02 0.00 85 1018.8
20260902090641 66 148 0.0 3.0 0.00 0.02 0.00 85 1018.8
20260902090541 66 148 0.0 3.0 0.00 0.02 0.00 85 1018.8
20260902090456 66 148 0.0 3.0 0.00 0.02 0.00 86 1018.8
20260902090428 66 148 0.0 3.0 0.00 0.02 0.00 85 1018.8
20260902090226 66 175 1.0 3.0 0.00 0.02 0.00 85 1018.8
20260902090120 66 175 1.0 3.0 0.00 0.02 0.00 85 1018.7
20260902085948 66 159 1.0 3.0 0.00 0.02 0.00 86 1018.7
20260902085849 66 159 0.0 3.0 0.00 0.02 0.00 86 1018.7
20260902085715 66 159 0.0 3.0 0.00 0.02 0.00 87 1018.7
20260902085648 66 159 0.0 3.0 0.00 0.02 0.00 86 1018.7
20260902085510 66 159 0.0 3.0 0.00 0.02 0.00 86 1018.6
20260902085433 66 159 0.0 3.0 0.00 0.02 0.00 86 1018.6
20260902085305 66 159 1.0 3.0 0.00 0.02 0.00 85 1018.6
20260902085201 66 159 0.0 3.0 0.00 0.02 0.00 86 1018.6
20260902085043 66 159 0.0 2.0 0.00 0.02 0.00 87 1018.6
20260902085003 66 159 0.0 2.0 0.00 0.02 0.00 86 1018.5
20260902084903 66 159 0.0 2.0 0.00 0.02 0.00 86 1018.6
20260902084806 66 159 0.0 2.0 0.00 0.02 0.00 86 1018.6
20260902084727 66 159 0.0 2.0 0.00 0.02 0.00 86 1018.6
20260902084557 66 159 0.0 2.0 0.00 0.02 0.00 86 1018.6
20260902084517 66 159 0.0 2.0 0.00 0.02 0.00 86 1018.6
20260902084347 66 159 0.0 2.0 0.00 0.02 0.00 86 1018.6
20260902084308 66 159 0.0 2.0 0.00 0.02 0.00 86 1018.7
20260902084137 66 159 0.0 2.0 0.00 0.02 0.00 86 1018.7
20260902084032 66 159 0.0 2.0 0.00 0.02 0.00 86 1018.7
20260902083911 66 159 1.0 2.0 0.00 0.02 0.00 85 1018.7
20260902083833 66 159 0.0 2.0 0.00 0.02 0.00 86 1018.7
20260902083635 66 159 0.0 3.0 0.00 0.02 0.00 86 1018.7
20260902083556 66 159 0.0 3.0 0.00 0.02 0.00 86 1018.7
20260902083458 66 159 0.0 3.0 0.00 0.02 0.00 85 1018.7
20260902083358 66 159 0.0 3.0 0.00 0.02 0.00 85 1018.6
20260902083224 66 159 0.0 3.0 0.00 0.02 0.00 85 1018.6
20260902083144 66 159 1.0 3.0 0.00 0.02 0.00 85 1018.6
20260902083105 66 159 1.0 3.0 0.00 0.02 0.00 85 1018.6
20260902083007 66 159 2.0 3.0 0.00 0.02 0.00 85 1018.7
20260902082928 66 159 2.0 3.0 0.00 0.02 0.00 85 1018.7
20260902082747 66 158 0.0 3.0 0.00 0.02 0.00 86 1018.6
20260902082641 66 158 0.0 3.0 0.00 0.02 0.00 86 1018.6
20260902082510 66 158 0.0 3.0 0.00 0.02 0.00 85 1018.6
20260902082431 66 158 0.0 3.0 0.00 0.02 0.00 85 1018.6
20260902082208 66 158 1.0 3.0 0.00 0.02 0.00 85 1018.7
20260902082123 66 158 1.0 3.0 0.00 0.02 0.00 85 1018.7
20260902081932 66 182 1.0 3.0 0.00 0.02 0.00 86 1018.7
20260902081830 66 182 1.0 3.0 0.00 0.02 0.00 86 1018.7
20260902081751 66 182 2.0 3.0 0.00 0.02 0.00 86 1018.6
20260902081654 66 182 2.0 3.0 0.00 0.02 0.00 86 1018.7
20260902081616 66 182 2.0 3.0 0.00 0.02 0.00 86 1018.6
20260902081419 66 167 1.0 2.0 0.00 0.02 0.00 86 1018.6
20260902081330 66 167 0.0 3.0 0.00 0.02 0.00 86 1018.7
20260902081233 66 167 0.0 1.0 0.00 0.02 0.00 86 1018.7
20260902081155 66 167 0.0 1.0 0.00 0.02 0.00 86 1018.7
20260902081004 66 167 0.0 1.0 0.00 0.02 0.00 86 1018.8
20260902080921 66 167 0.0 3.0 0.00 0.02 0.00 86 1018.8
20260902080803 66 167 0.0 3.0 0.00 0.02 0.00 86 1018.8
20260902080703 66 167 0.0 3.0 0.00 0.02 0.00 86 1018.7
20260902080526 66 167 0.0 3.0 0.00 0.02 0.00 86 1018.7
20260902080448 66 167 0.0 3.0 0.00 0.02 0.00 86 1018.7
20260902080318 66 167 0.0 3.0 0.00 0.02 0.00 86 1018.7
20260902080234 66 167 0.0 3.0 0.00 0.02 0.00 86 1018.7
20260902080042 66 167 1.0 4.0 0.00 0.02 0.00 86 1018.7
20260902075957 66 167 1.0 3.0 0.00 0.02 0.00 86 1018.7
20260902075856 66 167 1.0 3.0 0.00 0.02 0.00 86 1018.7
20260902075817 66 169 1.0 4.0 0.00 0.02 0.00 87 1018.7
20260902075700 66 190 0.0 2.0 0.00 0.02 0.00 87 1018.7
20260902075626 66 190 0.0 2.0 0.00 0.02 0.00 87 1018.7
20260902075456 66 190 0.0 0.0 0.00 0.02 0.00 87 1018.7
20260902075418 66 190 0.0 0.0 0.00 0.02 0.00 87 1018.8
20260902075240 66 190 0.0 0.0 0.00 0.02 0.00 87 1018.8
20260902075140 66 190 0.0 0.0 0.00 0.02 0.00 87 1018.8
20260902075044 66 190 0.0 0.0 0.00 0.02 0.00 87 1018.9
20260902075006 66 190 0.0 0.0 0.00 0.02 0.00 87 1018.9
20260902074815 66 190 0.0 0.0 0.00 0.02 0.00 87 1018.9
20260902074731 66 190 0.0 0.0 0.00 0.02 0.00 87 1018.9
20260902074600 66 190 0.0 0.0 0.00 0.02 0.00 86 1018.9
20260902074523 66 190 0.0 0.0 0.00 0.02 0.00 86 1018.9
20260902074331 66 190 0.0 0.0 0.00 0.02 0.00 86 1018.8
20260902074251 66 190 0.0 0.0 0.00 0.02 0.00 86 1018.8
20260902074136 66 190 0.0 0.0 0.00 0.02 0.00 86 1018.8
20260902074057 66 190 0.0 0.0 0.00 0.02 0.00 86 1018.8
20260902073958 66 190 0.0 0.0 0.00 0.02 0.00 86 1018.8
20260902073842 67 190 0.0 0.0 0.00 0.02 0.00 86 1018.8
20260902073804 67 190 0.0 0.0 0.00 0.02 0.00 86 1018.8
20260902073624 67 190 0.0 0.0 0.00 0.02 0.00 86 1018.9
20260902073526 67 190 0.0 0.0 0.00 0.02 0.00 86 1018.8
20260902073427 67 190 0.0 0.0 0.00 0.02 0.00 86 1018.8
20260902073323 67 190 0.0 0.0 0.00 0.02 0.00 85 1018.9
20260902073224 67 190 0.0 0.0 0.00 0.02 0.00 85 1018.9
20260902073126 67 190 0.0 0.0 0.00 0.02 0.00 85 1018.8
20260902073046 67 190 0.0 1.0 0.00 0.02 0.00 85 1018.8
20260902073007 67 190 0.0 2.0 0.00 0.02 0.00 84 1018.8
20260902072910 67 190 0.0 2.0 0.00 0.02 0.00 84 1018.8
20260902072832 67 190 0.0 2.0 0.00 0.02 0.00 84 1018.8
20260902072635 67 190 0.0 2.0 0.00 0.02 0.00 84 1018.9
20260902072535 67 190 0.0 3.0 0.00 0.02 0.00 84 1018.8
20260902072459 67 190 0.0 3.0 0.00 0.02 0.00 84 1018.8
20260902072421 67 190 0.0 3.0 0.00 0.02 0.00 84 1018.8
20260902072336 67 190 0.0 3.0 0.00 0.02 0.00 83 1018.8
20260902072205 67 190 1.0 3.0 0.00 0.02 0.00 83 1018.8
20260902072128 67 190 1.0 3.0 0.00 0.02 0.00 83 1018.8
20260902071930 67 190 0.0 3.0 0.00 0.02 0.00 84 1018.8
20260902071850 67 190 1.0 3.0 0.00 0.02 0.00 83 1018.9
20260902071733 67 190 1.0 3.0 0.00 0.02 0.00 83 1018.8
20260902071654 67 166 0.0 2.0 0.00 0.02 0.00 84 1018.8
20260902071528 67 166 0.0 2.0 0.00 0.02 0.00 83 1018.9
20260902071506 67 165 0.0 2.0 0.00 0.02 0.00 83 1018.8
20260902071348 67 165 0.0 2.0 0.00 0.02 0.00 83 1018.9
20260902071311 67 165 0.0 2.0 0.00 0.02 0.00 83 1018.8
20260902071130 67 165 1.0 2.0 0.00 0.02 0.00 83 1018.8
20260902071031 67 165 0.0 3.0 0.00 0.02 0.00 83 1018.8
20260902070834 67 165 0.0 2.0 0.00 0.02 0.00 83 1018.8
20260902070755 67 166 1.0 3.0 0.00 0.02 0.00 83 1018.8
20260902070700 67 166 1.0 4.0 0.00 0.02 0.00 83 1018.8
20260902070621 67 165 1.0 4.0 0.00 0.02 0.00 83 1018.9
20260902070430 67 158 0.0 4.0 0.00 0.02 0.00 83 1018.8
20260902070324 67 158 1.0 4.0 0.00 0.02 0.00 83 1018.8
20260902070139 67 158 1.0 5.0 0.00 0.02 0.00 83 1018.7
20260902070101 67 158 2.0 5.0 0.00 0.02 0.00 83 1018.7
20260902065941 67 158 3.0 5.0 0.00 0.02 0.00 84 1018.7
20260902065839 66 161 2.0 5.0 0.00 0.02 0.00 84 1018.7
20260902065707 66 164 0.0 5.0 0.00 0.02 0.00 85 1018.7
20260902065624 66 184 1.0 5.0 0.00 0.02 0.00 85 1018.7
20260902065453 66 184 2.0 5.0 0.00 0.02 0.00 85 1018.7
20260902065415 66 188 2.0 5.0 0.00 0.02 0.00 86 1018.7
20260902065240 66 219 2.0 4.0 0.00 0.02 0.00 86 1018.7
20260902065138 66 209 2.0 4.0 0.00 0.02 0.00 86 1018.7
20260902065023 66 209 1.0 4.0 0.00 0.02 0.00 87 1018.7
20260902064948 66 215 1.0 3.0 0.00 0.02 0.00 87 1018.7
20260902064810 66 169 0.0 0.0 0.00 0.02 0.00 87 1018.6
20260902064731 66 169 0.0 0.0 0.00 0.02 0.00 87 1018.6
20260902064542 65 169 0.0 0.0 0.00 0.02 0.00 88 1018.6
20260902064434 65 169 0.0 0.0 0.00 0.02 0.00 87 1018.6
20260902064355 65 169 0.0 0.0 0.00 0.02 0.00 89 1018.6
20260902064257 65 241 0.0 0.0 0.00 0.02 0.00 88 1018.6
20260902064219 65 241 0.0 0.0 0.00 0.02 0.00 89 1018.7
20260902064050 65 241 0.0 0.0 0.00 0.02 0.00 89 1018.7
20260902063945 65 241 0.0 0.0 0.00 0.02 0.00 88 1018.7
20260902063813 65 241 0.0 0.0 0.00 0.02 0.00 88 1018.7
20260902063739 65 241 0.0 0.0 0.00 0.02 0.00 88 1018.7
20260902063541 65 241 0.0 0.0 0.00 0.02 0.00 89 1018.7
20260902063502 65 241 0.0 0.0 0.00 0.02 0.00 88 1018.8
20260902063404 65 241 0.0 0.0 0.00 0.02 0.00 88 1018.8
20260902063326 65 241 0.0 0.0 0.00 0.02 0.00 88 1018.8
20260902063138 66 241 0.0 0.0 0.00 0.02 0.00 89 1018.8
20260902063031 65 241 0.0 0.0 0.00 0.02 0.00 88 1018.9
20260902062951 66 241 0.0 0.0 0.00 0.02 0.00 88 1018.8
20260902062855 66 241 0.0 0.0 0.00 0.02 0.00 88 1018.8
20260902062817 66 241 0.0 0.0 0.00 0.02 0.00 88 1018.8
20260902062623 66 241 0.0 0.0 0.00 0.02 0.00 88 1018.8
20260902062524 66 241 0.0 0.0 0.00 0.02 0.00 88 1018.8
20260902062428 66 241 0.0 0.0 0.00 0.02 0.00 88 1018.8
20260902062349 66 241 0.0 0.0 0.00 0.02 0.00 88 1018.8
20260902062218 66 241 0.0 0.0 0.00 0.02 0.00 88 1018.8
20260902062132 66 241 0.0 0.0 0.00 0.02 0.00 88 1018.8
20260902061942 66 241 0.0 0.0 0.00 0.02 0.00 88 1018.8
20260902061856 66 241 0.0 0.0 0.00 0.02 0.00 88 1018.8
20260902061704 66 241 0.0 0.0 0.00 0.02 0.00 88 1018.8
20260902061626 66 241 0.0 0.0 0.00 0.02 0.00 88 1018.8
20260902061459 66 241 0.0 0.0 0.00 0.02 0.00 88 1018.7
20260902061413 66 241 0.0 0.0 0.00 0.02 0.00 88 1018.8
20260902061131 66 241 0.0 0.0 0.00 0.02 0.00 88 1018.7
20260902061025 66 241 0.0 0.0 0.00 0.02 0.00 87 1018.7
20260902060947 66 241 0.0 0.0 0.00 0.02 0.00 87 1018.7
20260902060849 66 241 0.0 0.0 0.00 0.02 0.00 87 1018.6
20260902060729 66 241 0.0 0.0 0.00 0.02 0.00 87 1018.6
20260902060632 66 241 0.0 0.0 0.00 0.02 0.00 88 1018.6
20260902060532 66 241 0.0 0.0 0.00 0.02 0.00 87 1018.6
20260902060403 66 241 0.0 0.0 0.00 0.02 0.00 87 1018.6
20260902060322 66 241 0.0 0.0 0.00 0.02 0.00 87 1018.6
20260902060132 66 241 0.0 0.0 0.00 0.02 0.00 88 1018.5
20260902060047 66 241 0.0 0.0 0.00 0.02 0.00 88 1018.6
20260902055856 66 241 0.0 0.0 0.00 0.02 0.00 88 1018.5
20260902055819 66 241 0.0 0.0 0.00 0.02 0.00 88 1018.5
20260902055649 66 241 0.0 0.0 0.00 0.02 0.00 88 1018.5
20260902055543 66 241 0.0 0.0 0.00 0.02 0.00 88 1018.5
20260902055437 66 241 0.0 0.0 0.00 0.02 0.00 87 1018.5
20260902055359 66 241 0.0 0.0 0.00 0.02 0.00 87 1018.6
20260902055226 66 241 0.0 0.0 0.00 0.02 0.00 87 1018.5
20260902055148 66 241 0.0 0.0 0.00 0.02 0.00 88 1018.5
20260902055018 66 241 0.0 0.0 0.00 0.02 0.00 88 1018.6
20260902054932 66 241 0.0 0.0 0.00 0.02 0.00 87 1018.6
20260902054741 66 241 0.0 0.0 0.00 0.02 0.00 86 1018.6
20260902054706 66 241 0.0 0.0 0.00 0.02 0.00 86 1018.6
20260902054514 66 241 0.0 0.0 0.00 0.02 0.00 86 1018.6
20260902054416 66 241 0.0 0.0 0.00 0.02 0.00 86 1018.6
20260902054238 66 241 0.0 0.0 0.00 0.02 0.00 86 1018.6
20260902054140 66 241 0.0 0.0 0.00 0.02 0.00 86 1018.6
20260902054028 66 241 0.0 0.0 0.00 0.02 0.00 86 1018.6
20260902053949 66 241 0.0 0.0 0.00 0.02 0.00 86 1018.6
20260902053820 66 241 0.0 0.0 0.00 0.02 0.00 86 1018.5
20260902053734 66 241 0.0 0.0 0.00 0.02 0.00 86 1018.5
20260902053544 66 241 0.0 0.0 0.00 0.02 0.00 85 1018.6
20260902053441 66 241 0.0 0.0 0.00 0.02 0.00 85 1018.6
20260902053323 66 241 0.0 0.0 0.00 0.02 0.00 86 1018.6
20260902053245 66 241 0.0 0.0 0.00 0.02 0.00 86 1018.6
20260902053115 66 241 0.0 0.0 0.00 0.02 0.00 84 1018.6
20260902053031 66 241 0.0 0.0 0.00 0.02 0.00 85 1018.6
20260902052904 67 241 0.0 0.0 0.00 0.02 0.00 85 1018.5
20260902052826 66 241 0.0 0.0 0.00 0.02 0.00 85 1018.5
20260902052629 66 241 0.0 0.0 0.00 0.02 0.00 85 1018.5
20260902052551 66 241 0.0 0.0 0.00 0.02 0.00 85 1018.5
20260902052433 66 241 0.0 0.0 0.00 0.02 0.00 85 1018.6
20260902052354 67 241 0.0 0.0 0.00 0.02 0.00 85 1018.5
20260902052315 66 241 0.0 0.0 0.00 0.02 0.00 85 1018.5
20260902052217 66 241 0.0 0.0 0.00 0.02 0.00 84 1018.5
20260902052139 66 241 0.0 0.0 0.00 0.02 0.00 84 1018.5
20260902051947 66 241 0.0 0.0 0.00 0.02 0.00 85 1018.5
20260902051827 66 241 0.0 0.0 0.00 0.02 0.00 84 1018.5
20260902051729 66 241 0.0 0.0 0.00 0.02 0.00 84 1018.5
20260902051650 66 250 0.0 0.0 0.00 0.02 0.00 84 1018.5
20260902051610 66 202 0.0 0.0 0.00 0.02 0.00 85 1018.5
20260902051512 66 202 0.0 0.0 0.00 0.02 0.00 86 1018.5
20260902051434 66 202 0.0 0.0 0.00 0.02 0.00 85 1018.5
20260902051303 66 202 0.0 0.0 0.00 0.02 0.00 85 1018.4
20260902051218 66 202 0.0 0.0 0.00 0.02 0.00 85 1018.5
20260902050955 66 202 0.0 0.0 0.00 0.02 0.00 84 1018.5
20260902050855 66 202 0.0 0.0 0.00 0.02 0.00 84 1018.5
20260902050758 66 202 0.0 0.0 0.00 0.02 0.00 84 1018.5
20260902050720 66 202 0.0 0.0 0.00 0.02 0.00 84 1018.5
20260902050533 67 202 0.0 0.0 0.00 0.02 0.00 84 1018.5
20260902050429 67 202 0.0 0.0 0.00 0.02 0.00 84 1018.5
20260902050349 67 202 0.0 0.0 0.00 0.02 0.00 84 1018.5
20260902050231 67 202 0.0 1.0 0.00 0.02 0.00 84 1018.5
20260902050153 67 202 0.0 1.0 0.00 0.02 0.00 84 1018.5
20260902045934 67 202 0.0 1.0 0.00 0.02 0.00 83 1018.5
20260902045854 67 202 0.0 1.0 0.00 0.02 0.00 84 1018.5
20260902045758 67 202 0.0 1.0 0.00 0.02 0.00 83 1018.5
20260902045720 67 202 0.0 1.0 0.00 0.02 0.00 83 1018.5
20260902045554 67 202 0.0 1.0 0.00 0.02 0.00 84 1018.5
20260902045427 67 182 0.0 1.0 0.00 0.02 0.00 83 1018.5
20260902045256 67 182 0.0 1.0 0.00 0.02 0.00 83 1018.5
20260902045217 67 156 0.0 1.0 0.00 0.02 0.00 84 1018.4
20260902045048 67 170 0.0 0.0 0.00 0.02 0.00 83 1018.3
20260902045002 67 170 0.0 0.0 0.00 0.02 0.00 83 1018.3
20260902044833 67 170 0.0 0.0 0.00 0.02 0.00 83 1018.3
20260902044734 67 170 0.0 0.0 0.00 0.02 0.00 83 1018.3
20260902044537 67 170 0.0 1.0 0.00 0.02 0.00 82 1018.3
20260902044456 67 170 0.0 1.0 0.00 0.02 0.00 82 1018.2
20260902044359 67 170 0.0 1.0 0.00 0.02 0.00 83 1018.3
20260902044321 67 170 0.0 1.0 0.00 0.02 0.00 83 1018.3
20260902044154 67 170 0.0 2.0 0.00 0.02 0.00 82 1018.3
20260902044108 67 170 0.0 2.0 0.00 0.02 0.00 82 1018.3
20260902043937 67 170 0.0 2.0 0.00 0.02 0.00 82 1018.3
20260902043838 67 170 0.0 2.0 0.00 0.02 0.00 82 1018.3
20260902043641 67 170 0.0 2.0 0.00 0.02 0.00 82 1018.3
20260902043601 67 170 0.0 2.0 0.00 0.02 0.00 81 1018.3
20260902043443 67 170 0.0 3.0 0.00 0.02 0.00 81 1018.3
20260902043406 67 214 0.0 3.0 0.00 0.02 0.00 81 1018.3
20260902043214 67 214 0.0 3.0 0.00 0.02 0.00 81 1018.3
20260902043129 67 214 1.0 4.0 0.00 0.02 0.00 81 1018.3
20260902042958 67 214 1.0 4.0 0.00 0.02 0.00 81 1018.4
20260902042925 68 214 1.0 4.0 0.00 0.02 0.00 81 1018.4
20260902042728 68 214 1.0 4.0 0.00 0.02 0.00 81 1018.4
20260902042648 68 214 1.0 4.0 0.00 0.02 0.00 80 1018.4
20260902042551 68 225 1.0 4.0 0.00 0.02 0.00 80 1018.3
20260902042432 68 222 1.0 4.0 0.00 0.02 0.00 80 1018.4
20260902042334 68 222 2.0 4.0 0.00 0.02 0.00 80 1018.3
20260902042255 68 222 2.0 4.0 0.00 0.02 0.00 80 1018.3
20260902042215 68 216 2.0 6.0 0.00 0.02 0.00 80 1018.3
20260902042119 68 216 2.0 6.0 0.00 0.02 0.00 81 1018.3
20260902042041 68 209 2.0 6.0 0.00 0.02 0.00 80 1018.3
20260902041833 68 201 1.0 6.0 0.00 0.02 0.00 80 1018.2
20260902041727 68 182 1.0 6.0 0.00 0.02 0.00 80 1018.2
20260902041622 68 166 2.0 6.0 0.00 0.02 0.00 80 1018.2
20260902041554 68 194 2.0 6.0 0.00 0.02 0.00 80 1018.2
20260902041516 68 207 3.0 6.0 0.00 0.02 0.00 79 1018.1
20260902041418 68 190 3.0 6.0 0.00 0.02 0.00 80 1018.2
20260902041319 68 192 3.0 6.0 0.00 0.02 0.00 80 1018.2
20260902041158 68 187 3.0 6.0 0.00 0.02 0.00 80 1018.2
20260902041114 68 195 3.0 6.0 0.00 0.02 0.00 79 1018.1
20260902040923 68 167 2.0 4.0 0.00 0.02 0.00 80 1018.1
20260902040841 68 167 1.0 3.0 0.00 0.02 0.00 80 1018.1
20260902040618 68 167 2.0 3.0 0.00 0.02 0.00 80 1018.1
20260902040541 68 167 2.0 4.0 0.00 0.02 0.00 79 1018.1
20260902040341 68 163 0.0 2.0 0.00 0.02 0.00 80 1018.1
20260902040242 68 163 1.0 2.0 0.00 0.02 0.00 80 1018.1
20260902040125 68 163 1.0 2.0 0.00 0.02 0.00 79 1018.2
20260902040047 68 163 0.0 2.0 0.00 0.02 0.00 80 1018.2
20260902040008 68 167 0.0 5.0 0.00 0.02 0.00 79 1018.2
20260902035913 68 167 0.0 5.0 0.00 0.02 0.02 79 1018.2
20260902035834 68 167 0.0 5.0 0.00 0.02 0.02 79 1018.2
20260902035704 68 167 0.0 5.0 0.00 0.02 0.02 79 1018.2
20260902035623 68 167 1.0 5.0 0.00 0.02 0.02 79 1018.2
20260902035454 68 167 1.0 5.0 0.00 0.02 0.02 79 1018.1
20260902035415 68 164 1.0 5.0 0.00 0.02 0.02 79 1018.1
20260902035239 68 164 2.0 5.0 0.00 0.02 0.02 79 1018.1
20260902035200 68 148 2.0 5.0 0.00 0.02 0.02 79 1018.1
20260902034908 68 160 0.0 3.0 0.00 0.02 0.02 80 1018.1
20260902034726 68 160 0.0 5.0 0.00 0.02 0.02 78 1018.1
20260902034631 68 160 1.0 5.0 0.00 0.02 0.02 78 1018.1
20260902034553 68 160 1.0 5.0 0.00 0.02 0.02 78 1018.1
20260902034422 68 162 1.0 5.0 0.00 0.02 0.02 78 1018.0
20260902034337 68 180 2.0 5.0 0.00 0.02 0.02 78 1018.0
20260902034206 68 175 2.0 5.0 0.00 0.02 0.02 78 1018.1
20260902034107 68 171 3.0 5.0 0.00 0.02 0.02 78 1018.0
20260902034012 68 203 3.0 5.0 0.00 0.02 0.02 78 1018.0
20260902033933 68 193 3.0 5.0 0.00 0.02 0.02 78 1018.0
20260902033804 68 220 3.0 5.0 0.00 0.02 0.02 78 1018.0
20260902033704 68 217 2.0 4.0 0.00 0.02 0.02 78 1018.0
20260902033528 68 190 1.0 4.0 0.00 0.02 0.02 78 1018.0
20260902033455 68 186 1.0 4.0 0.00 0.02 0.02 78 1018.0
20260902033238 68 183 1.0 4.0 0.00 0.02 0.02 78 1017.8
20260902033159 68 183 1.0 4.0 0.00 0.02 0.02 78 1017.9
20260902033023 68 157 0.0 2.0 0.00 0.02 0.02 78 1017.8
20260902032938 68 157 0.0 2.0 0.00 0.02 0.02 78 1017.8
20260902032809 68 157 0.0 2.0 0.00 0.02 0.02 78 1017.9
20260902032731 68 157 0.0 2.0 0.00 0.02 0.02 79 1017.9
20260902032554 68 157 0.0 4.0 0.00 0.02 0.02 78 1017.9
20260902032517 68 157 0.0 4.0 0.00 0.02 0.02 78 1017.9
20260902032330 68 157 1.0 4.0 0.00 0.02 0.02 78 1017.9
20260902032245 68 157 1.0 4.0 0.00 0.02 0.02 78 1017.9
20260902032115 68 156 1.0 4.0 0.00 0.02 0.02 78 1017.9
20260902032037 68 156 1.0 4.0 0.00 0.02 0.02 78 1017.9
20260902031843 68 174 2.0 4.0 0.00 0.02 0.02 78 1017.9
20260902031804 68 177 2.0 4.0 0.00 0.02 0.02 78 1017.9
20260902031707 67 211 2.0 4.0 0.00 0.02 0.02 78 1017.9
20260902031630 67 213 2.0 4.0 0.00 0.02 0.02 79 1017.9
20260902031435 68 202 1.0 3.0 0.00 0.02 0.02 79 1017.9
20260902031322 68 194 1.0 3.0 0.00 0.02 0.02 80 1017.9
20260902031245 68 241 2.0 3.0 0.00 0.02 0.02 80 1017.9
20260902031146 68 192 1.0 3.0 0.00 0.02 0.02 80 1017.8
20260902031014 68 192 0.0 1.0 0.00 0.02 0.02 81 1017.7
20260902030929 68 192 0.0 1.0 0.00 0.02 0.02 81 1017.7
20260902030738 68 192 0.0 1.0 0.00 0.02 0.02 80 1017.7
20260902030633 68 192 0.0 1.0 0.00 0.02 0.02 80 1017.6
20260902030529 68 192 0.0 2.0 0.00 0.02 0.02 80 1017.6
20260902030450 68 192 0.0 2.0 0.00 0.02 0.02 79 1017.6
20260902030259 68 192 0.0 3.0 0.00 0.02 0.02 78 1017.5
20260902030216 68 192 0.0 3.0 0.00 0.02 0.02 80 1017.5
20260902025955 68 192 0.0 3.0 0.00 0.02 0.02 80 1017.5
20260902025918 68 192 0.0 3.0 0.00 0.02 0.02 79 1017.5
20260902025741 68 192 1.0 3.0 0.00 0.02 0.02 78 1017.4
20260902025641 68 192 1.0 3.0 0.00 0.02 0.02 78 1017.4
20260902025525 68 192 1.0 5.0 0.00 0.02 0.02 78 1017.4
20260902025448 68 192 0.0 5.0 0.00 0.02 0.02 78 1017.4
20260902025318 68 192 0.0 5.0 0.00 0.02 0.02 77 1017.3
20260902025231 68 192 0.0 5.0 0.00 0.02 0.02 77 1017.3
20260902025042 68 192 0.0 5.0 0.00 0.02 0.02 77 1017.3
20260902025000 68 192 1.0 5.0 0.00 0.02 0.02 77 1017.3
20260902024832 68 198 1.0 5.0 0.00 0.02 0.02 77 1017.3
20260902024732 68 207 1.0 5.0 0.00 0.02 0.02 77 1017.3
20260902024535 68 186 1.0 4.0 0.00 0.02 0.02 77 1017.2
20260902024458 68 171 1.0 4.0 0.00 0.02 0.02 77 1017.2
20260902024342 68 171 2.0 4.0 0.00 0.02 0.02 78 1017.1
20260902024305 68 206 2.0 4.0 0.00 0.02 0.02 78 1017.1
20260902024107 68 192 1.0 4.0 0.00 0.02 0.02 78 1017.2
20260902024029 68 192 2.0 4.0 0.00 0.02 0.02 78 1017.2
20260902023840 68 207 3.0 4.0 0.00 0.02 0.02 78 1017.2
20260902023757 68 176 3.0 4.0 0.00 0.02 0.02 78 1017.2
20260902023605 68 182 1.0 4.0 0.00 0.02 0.02 78 1017.1
20260902023527 69 194 0.0 3.0 0.00 0.02 0.02 78 1017.1
20260902023331 69 175 0.0 3.0 0.00 0.02 0.02 79 1017.2
20260902023252 69 175 0.0 3.0 0.00 0.02 0.02 78 1017.1
20260902023156 69 175 0.0 4.0 0.00 0.02 0.02 78 1017.2
20260902023118 69 175 1.0 4.0 0.00 0.02 0.02 79 1017.2
20260902022926 69 175 0.0 4.0 0.00 0.02 0.02 78 1017.2
20260902022821 69 184 0.0 4.0 0.00 0.02 0.02 78 1017.3
20260902022630 69 184 0.0 5.0 0.00 0.02 0.02 78 1017.2
20260902022545 69 184 1.0 5.0 0.00 0.02 0.02 78 1017.3
20260902022419 69 221 2.0 5.0 0.00 0.02 0.02 78 1017.3
20260902022340 69 200 2.0 5.0 0.00 0.02 0.02 78 1017.3
20260902022209 69 164 3.0 5.0 0.00 0.02 0.02 77 1017.4
20260902022124 69 173 2.0 5.0 0.00 0.02 0.02 77 1017.4
20260902021935 69 169 3.0 5.0 0.00 0.02 0.02 78 1017.4
20260902021850 69 171 3.0 6.0 0.00 0.02 0.02 78 1017.4
20260902021659 69 186 2.0 3.0 0.00 0.02 0.02 79 1017.4
20260902021559 69 180 2.0 4.0 0.00 0.02 0.02 78 1017.4
20260902021424 69 188 1.0 4.0 0.00 0.02 0.02 79 1017.4
20260902021340 69 188 2.0 4.0 0.00 0.02 0.02 79 1017.4
20260902021214 69 176 1.0 5.0 0.00 0.02 0.02 79 1017.4
20260902021135 69 176 1.0 5.0 0.00 0.02 0.02 79 1017.4
20260902021005 69 176 1.0 5.0 0.00 0.02 0.02 79 1017.5
20260902020920 69 176 2.0 5.0 0.00 0.02 0.02 79 1017.5
20260902020740 69 174 2.0 5.0 0.00 0.02 0.02 79 1017.5
20260902020655 69 176 2.0 5.0 0.00 0.02 0.02 79 1017.5
20260902020526 69 175 3.0 5.0 0.00 0.02 0.02 79 1017.5
20260902020425 69 173 3.0 4.0 0.00 0.02 0.02 79 1017.5
20260902020225 69 183 2.0 5.0 0.00 0.02 0.02 79 1017.5
20260902020147 69 175 3.0 5.0 0.00 0.02 0.02 79 1017.5
20260902020034 69 183 2.0 5.0 0.00 0.02 0.02 79 1017.6
20260902015955 69 169 1.0 5.0 0.00 0.02 0.02 79 1017.5
20260902015917 69 211 1.0 5.0 0.00 0.02 0.02 79 1017.5
20260902015818 69 165 2.0 5.0 0.00 0.02 0.02 80 1017.6
20260902015739 69 165 2.0 5.0 0.00 0.02 0.02 80 1017.6
20260902015608 69 214 2.0 5.0 0.00 0.02 0.02 80 1017.6
20260902015441 69 208 1.0 4.0 0.00 0.02 0.02 80 1017.6
20260902015325 69 155 1.0 3.0 0.00 0.02 0.02 80 1017.6
20260902015246 69 176 1.0 3.0 0.00 0.02 0.02 80 1017.6
20260902015207 69 194 1.0 3.0 0.00 0.02 0.02 80 1017.6
20260902015111 69 194 0.0 3.0 0.00 0.02 0.02 80 1017.5
20260902015037 69 194 1.0 3.0 0.00 0.02 0.02 80 1017.5
20260902014908 69 194 1.0 3.0 0.00 0.02 0.02 79 1017.5
20260902014823 69 194 2.0 3.0 0.00 0.02 0.02 79 1017.5
20260902014654 69 192 2.0 4.0 0.00 0.02 0.02 79 1017.5
20260902014615 69 219 1.0 4.0 0.00 0.02 0.02 80 1017.5
20260902014446 69 215 0.0 4.0 0.00 0.02 0.02 81 1017.5
20260902014401 69 254 1.0 4.0 0.00 0.02 0.02 80 1017.5
20260902014220 70 234 1.0 4.0 0.00 0.02 0.02 79 1017.5
20260902014121 70 234 1.0 4.0 0.00 0.02 0.02 79 1017.4
20260902013925 70 157 2.0 4.0 0.00 0.02 0.02 76 1017.5
20260902013847 69 185 3.0 4.0 0.00 0.02 0.02 76 1017.5
20260902013751 69 148 3.0 6.0 0.00 0.02 0.02 77 1017.4
20260902013716 69 184 3.0 6.0 0.00 0.02 0.02 78 1017.4
20260902013546 70 159 2.0 6.0 0.00 0.02 0.02 78 1017.4
20260902013441 70 188 2.0 6.0 0.00 0.02 0.02 77 1017.4
20260902013325 70 159 1.0 6.0 0.00 0.02 0.02 79 1017.4
20260902013225 70 135 1.0 6.0 0.00 0.02 0.02 78 1017.4
20260902013147 70 135 2.0 6.0 0.00 0.02 0.02 77 1017.4
20260902013050 70 135 2.0 6.0 0.00 0.02 0.02 77 1017.4
20260902013012 70 176 2.0 7.0 0.00 0.02 0.02 78 1017.4
20260902012822 70 139 1.0 8.0 0.00 0.02 0.02 78 1017.4
20260902012716 70 182 1.0 8.0 0.00 0.02 0.02 78 1017.4
20260902012550 70 196 2.0 8.0 0.00 0.02 0.02 78 1017.4
20260902012511 70 188 2.0 8.0 0.00 0.02 0.02 77 1017.4
20260902012414 70 215 2.0 10.0 0.00 0.02 0.02 77 1017.4
20260902012316 70 186 1.0 10.0 0.00 0.02 0.02 77 1017.4
20260902012238 70 179 3.0 10.0 0.00 0.02 0.02 77 1017.4
20260902012109 70 162 5.0 10.0 0.00 0.02 0.02 77 1017.3
20260902012025 70 166 4.0 10.0 0.00 0.02 0.02 77 1017.3
20260902011835 70 118 4.0 10.0 0.00 0.02 0.02 77 1017.3
20260902011728 70 165 5.0 10.0 0.00 0.02 0.02 77 1017.3
20260902011659 70 155 5.0 10.0 0.00 0.02 0.02 77 1017.3
20260902011528 70 142 3.0 9.0 0.00 0.02 0.02 78 1017.3
20260902011443 70 172 3.0 11.0 0.00 0.02 0.02 78 1017.4
20260902011254 70 122 4.0 11.0 0.00 0.02 0.02 78 1017.4
20260902011215 70 205 4.0 11.0 0.00 0.02 0.02 78 1017.4
20260902011046 70 132 6.0 11.0 0.00 0.02 0.02 78 1017.3
20260902010938 69 134 6.0 11.0 0.00 0.02 0.02 79 1017.4
20260902010900 69 166 5.0 11.0 0.00 0.02 0.02 79 1017.3
20260902010752 69 159 5.0 11.0 0.00 0.02 0.02 80 1017.3
20260902010541 68 155 2.0 8.0 0.00 0.02 0.02 81 1017.3
20260902010440 68 173 3.0 8.0 0.00 0.02 0.02 81 1017.3
20260902010325 68 173 5.0 8.0 0.00 0.02 0.02 81 1017.3
20260902010247 68 182 5.0 8.0 0.00 0.02 0.02 81 1017.3
20260902010207 68 148 4.0 8.0 0.00 0.02 0.02 83 1017.3
20260902010111 68 205 3.0 8.0 0.00 0.02 0.02 83 1017.3
20260902010032 68 169 3.0 8.0 0.00 0.02 0.02 84 1017.3
20260902005902 67 154 3.0 8.0 0.00 0.02 0.02 84 1017.3
20260902005817 67 166 2.0 4.0 0.00 0.02 0.02 84 1017.3
20260902005647 67 199 0.0 4.0 0.00 0.02 0.02 85 1017.3
20260902005548 67 182 0.0 4.0 0.00 0.02 0.02 85 1017.3
20260902005511 67 182 1.0 4.0 0.00 0.02 0.02 85 1017.3
20260902005414 67 182 2.0 4.0 0.00 0.02 0.02 85 1017.3
20260902005340 67 188 1.0 4.0 0.00 0.02 0.02 86 1017.3
20260902005124 67 167 0.0 2.0 0.00 0.02 0.02 87 1017.3
20260902005025 67 153 0.0 2.0 0.00 0.02 0.02 86 1017.2
20260902004929 67 153 0.0 2.0 0.00 0.02 0.02 86 1017.2
20260902004852 67 153 0.0 2.0 0.00 0.02 0.02 87 1017.2
20260902004722 67 153 0.0 2.0 0.00 0.02 0.02 86 1017.2
20260902004637 67 153 0.0 2.0 0.00 0.02 0.02 86 1017.2
20260902004425 67 203 0.0 0.0 0.00 0.02 0.02 87 1017.2
20260902004351 67 203 0.0 0.0 0.00 0.02 0.02 87 1017.1
20260902004221 67 203 0.0 0.0 0.00 0.02 0.02 87 1017.2
20260902004146 67 203 0.0 0.0 0.00 0.02 0.02 87 1017.2
20260902004017 67 203 0.0 0.0 0.00 0.02 0.02 87 1017.2
20260902003933 67 203 0.0 0.0 0.00 0.02 0.02 87 1017.2
20260902003804 67 203 0.0 0.0 0.00 0.02 0.02 87 1017.2
20260902003724 67 203 0.0 0.0 0.00 0.02 0.02 87 1017.2
20260902003526 67 203 0.0 0.0 0.00 0.02 0.02 87 1017.2
20260902003448 67 203 0.0 0.0 0.00 0.02 0.02 87 1017.2
20260902003333 67 203 0.0 0.0 0.00 0.02 0.02 87 1017.2
20260902003254 67 203 0.0 0.0 0.00 0.02 0.02 87 1017.2
20260902003218 67 203 0.0 0.0 0.00 0.02 0.02 88 1017.2
20260902003119 67 203 0.0 0.0 0.00 0.02 0.02 87 1017.2
20260902003046 67 203 0.0 0.0 0.00 0.02 0.02 87 1017.2
20260902002914 67 203 0.0 0.0 0.00 0.02 0.02 87 1017.1
20260902002829 67 203 0.0 0.0 0.00 0.02 0.02 87 1017.1
20260902002640 67 203 0.0 0.0 0.00 0.02 0.02 87 1017.1
20260902002555 67 203 0.0 0.0 0.00 0.02 0.02 87 1017.0
20260902002404 67 203 0.0 0.0 0.00 0.02 0.02 87 1017.0
20260902002326 67 203 0.0 0.0 0.00 0.02 0.02 87 1017.0
20260902002129 67 203 0.0 0.0 0.00 0.02 0.02 86 1017.0
20260902002051 67 203 0.0 0.0 0.00 0.02 0.02 86 1017.0
20260902001936 67 203 0.0 0.0 0.00 0.02 0.02 86 1017.0
20260902001902 67 203 0.0 0.0 0.00 0.02 0.02 86 1017.0
20260902001731 68 203 0.0 2.0 0.00 0.02 0.02 87 1017.1
20260902001626 68 203 0.0 2.0 0.00 0.02 0.02 87 1017.1
20260902001454 68 203 0.0 2.0 0.00 0.02 0.02 86 1017.1
20260902001328 68 203 0.0 2.0 0.00 0.02 0.02 86 1017.0
20260902001230 68 203 0.0 2.0 0.00 0.02 0.02 86 1017.1
20260902001155 68 203 0.0 2.0 0.00 0.02 0.02 87 1017.1
20260902001117 68 203 0.0 2.0 0.00 0.02 0.02 86 1017.1
20260902000948 68 203 0.0 2.0 0.00 0.02 0.02 86 1017.1
20260902000915 68 203 0.0 2.0 0.00 0.02 0.02 86 1017.1
20260902000746 68 203 0.0 0.0 0.00 0.02 0.02 87 1017.2
20260902000711 68 203 0.0 0.0 0.00 0.02 0.02 87 1017.2
20260902000520 68 203 0.0 0.0 0.00 0.02 0.02 87 1017.3
20260902000415 68 203 0.0 0.0 0.00 0.02 0.02 87 1017.2
20260902000226 68 203 0.0 0.0 0.00 0.02 0.02 86 1017.2
20260902000138 68 203 0.0 0.0 0.00 0.02 0.02 86 1017.2
20260902000007 68 203 0.0 0.0 0.00 0.02 0.02 86 1017.2
20260901235930 68 203 0.0 0.0 0.00 0.02 0.02 86 1017.2
20260901235732 68 203 0.0 0.0 0.00 0.02 0.02 86 1017.2
20260901235654 68 203 0.0 0.0 0.00 0.02 0.02 86 1017.2
20260901235538 68 203 0.0 0.0 0.00 0.02 0.02 86 1017.2
20260901235504 68 203 0.0 0.0 0.00 0.02 0.02 86 1017.2
20260901235314 68 203 0.0 0.0 0.00 0.02 0.02 86 1017.1
20260901235228 68 203 0.0 0.0 0.00 0.02 0.02 86 1017.1
20260901235039 68 203 0.0 0.0 0.00 0.02 0.02 85 1017.2
20260901234934 68 203 0.0 0.0 0.00 0.02 0.02 85 1017.2
20260901234856 69 203 0.0 0.0 0.00 0.02 0.02 86 1017.2
20260901234801 69 203 0.0 0.0 0.00 0.02 0.02 86 1017.2
20260901234640 69 203 0.0 1.0 0.00 0.02 0.02 85 1017.2
20260901234523 69 203 0.0 2.0 0.00 0.02 0.02 85 1017.2
20260901234449 69 203 0.0 2.0 0.00 0.02 0.02 85 1017.1
20260901234223 69 203 0.0 2.0 0.00 0.02 0.02 85 1017.2
20260901234054 69 203 0.0 2.0 0.00 0.02 0.02 85 1017.2
20260901233948 69 203 0.0 2.0 0.00 0.02 0.02 85 1017.2
20260901233735 69 203 1.0 2.0 0.00 0.02 0.02 84 1017.2
20260901233649 69 203 0.0 2.0 0.00 0.02 0.02 84 1017.1
20260901233438 69 203 0.0 0.0 0.00 0.02 0.02 85 1017.1
20260901233333 69 203 0.0 0.0 0.00 0.02 0.02 85 1017.1
20260901233254 69 203 0.0 0.0 0.00 0.02 0.02 85 1017.1
20260901233218 69 203 0.0 0.0 0.00 0.02 0.02 85 1017.1
20260901233134 69 203 0.0 0.0 0.00 0.02 0.02 85 1017.1
20260901233002 69 203 0.0 0.0 0.00 0.02 0.02 84 1017.1
20260901232902 69 203 0.0 0.0 0.00 0.02 0.02 84 1017.1